EW4266 Weather Reports


time (UTC)temp
C
wind
direction
speed
KPH
gust
KPH
rain 1hr
cm
rain 24hr
cm
rain mn
cm
humidity
%
barometer
mb
20260905153012 20 342 8.0 19.3 0.00 0.00 0.00 78 1012.7
20260905152942 20 341 6.4 17.7 0.00 0.00 0.00 78 1012.6
20260905152812 20 339 9.7 20.9 0.00 0.00 0.00 76 1012.6
20260905152728 20 340 11.3 20.9 0.00 0.00 0.00 75 1012.6
20260905152557 21 331 9.7 20.9 0.00 0.00 0.00 76 1012.6
20260905152518 21 340 8.0 20.9 0.00 0.00 0.00 76 1012.6
20260905152341 21 355 9.7 20.9 0.00 0.00 0.00 77 1012.6
20260905152247 21 293 9.7 20.9 0.00 0.00 0.00 76 1012.6
20260905152131 21 328 14.5 20.9 0.00 0.00 0.00 77 1012.6
20260905152052 21 329 14.5 20.9 0.00 0.00 0.00 76 1012.6
20260905151924 20 346 9.7 19.3 0.00 0.00 0.00 77 1012.6
20260905151846 20 343 9.7 19.3 0.00 0.00 0.00 75 1012.6
20260905151746 20 277 9.7 19.3 0.00 0.00 0.00 76 1012.6
20260905151649 20 311 12.9 19.3 0.00 0.00 0.00 78 1012.6
20260905151549 20 336 12.9 19.3 0.00 0.00 0.00 77 1012.6
20260905151510 20 319 11.3 19.3 0.00 0.00 0.00 78 1012.6
20260905151416 20 9 11.3 19.3 0.00 0.00 0.00 78 1012.6
20260905151337 20 348 11.3 19.3 0.00 0.00 0.00 80 1012.6
20260905151213 20 343 8.0 14.5 0.00 0.00 0.00 80 1012.6
20260905151127 20 316 6.4 17.7 0.00 0.00 0.00 80 1012.6
20260905150936 20 338 8.0 17.7 0.00 0.00 0.00 79 1012.6
20260905150850 20 336 9.7 17.7 0.00 0.00 0.00 79 1012.6
20260905150720 20 316 6.4 17.7 0.00 0.00 0.00 80 1012.7
20260905150620 20 12 6.4 17.7 0.00 0.00 0.00 80 1012.6
20260905150442 20 16 8.0 19.3 0.00 0.00 0.00 80 1012.6
20260905150405 20 345 9.7 19.3 0.00 0.00 0.00 80 1012.7
20260905150134 20 348 8.0 19.3 0.00 0.00 0.00 80 1012.6
20260905150027 20 355 9.7 19.3 0.00 0.00 0.00 79 1012.6
20260905145954 20 351 8.0 19.3 0.00 0.00 0.00 80 1012.6
20260905145857 20 355 8.0 19.3 0.00 0.00 0.00 79 1012.6
20260905145819 20 360 11.3 19.3 0.00 0.00 0.00 78 1012.6
20260905145625 20 340 12.9 19.3 0.00 0.00 0.00 79 1012.5
20260905145525 20 360 11.3 17.7 0.00 0.00 0.00 80 1012.6
20260905145429 20 355 9.7 17.7 0.00 0.00 0.00 80 1012.5
20260905145350 20 349 8.0 17.7 0.00 0.00 0.00 80 1012.5
20260905145313 20 355 9.7 17.7 0.00 0.00 0.00 80 1012.6
20260905145215 20 342 11.3 19.3 0.00 0.00 0.00 80 1012.6
20260905145136 20 313 11.3 19.3 0.00 0.00 0.00 80 1012.6
20260905145005 20 336 11.3 19.3 0.00 0.00 0.00 79 1012.5
20260905144912 20 336 9.7 19.3 0.00 0.00 0.00 79 1012.6
20260905144754 20 346 8.0 19.3 0.00 0.00 0.00 79 1012.5
20260905144635 20 355 9.7 19.3 0.00 0.00 0.00 78 1012.6
20260905144538 20 331 12.9 19.3 0.00 0.00 0.00 78 1012.6
20260905144438 20 324 12.9 19.3 0.00 0.00 0.00 79 1012.6
20260905144310 20 350 11.3 19.3 0.00 0.00 0.00 79 1012.6
20260905144223 20 300 11.3 19.3 0.00 0.00 0.00 78 1012.6
20260905144034 20 344 9.7 19.3 0.00 0.00 0.00 80 1012.6
20260905143949 20 355 11.3 19.3 0.00 0.00 0.00 78 1012.5
20260905143757 20 9 12.9 19.3 0.00 0.00 0.00 80 1012.6
20260905143720 20 342 9.7 19.3 0.00 0.00 0.00 80 1012.6
20260905143638 20 348 9.7 19.3 0.00 0.00 0.00 81 1012.6
20260905143507 20 330 11.3 19.3 0.00 0.00 0.00 81 1012.5
20260905143409 20 336 11.3 19.3 0.00 0.00 0.00 81 1012.5
20260905143332 20 335 11.3 19.3 0.00 0.00 0.00 80 1012.5
20260905143213 20 333 8.0 16.1 0.00 0.00 0.00 81 1012.5
20260905143135 20 339 8.0 14.5 0.00 0.00 0.00 81 1012.5
20260905143005 20 317 8.0 14.5 0.00 0.00 0.00 81 1012.5
20260905142919 20 323 8.0 14.5 0.00 0.00 0.00 83 1012.5
20260905142727 20 343 1.6 14.5 0.00 0.00 0.00 82 1012.5
20260905142623 20 355 0.0 0.0 0.00 0.00 0.00 83 1012.5
20260905142545 20 336 0.0 0.0 0.00 0.00 0.00 84 1012.5
20260905142432 20 320 0.0 0.0 0.00 0.00 0.00 83 1012.4
20260905142332 19 360 0.0 0.0 0.00 0.00 0.00 83 1012.5
20260905142134 19 332 0.0 0.0 0.00 0.00 0.00 82 1012.4
20260905142057 19 325 0.0 0.0 0.00 0.00 0.00 83 1012.5
20260905142001 19 350 0.0 0.0 0.00 0.00 0.00 84 1012.5
20260905141923 19 326 0.0 0.0 0.00 0.00 0.00 84 1012.5
20260905141726 19 318 0.0 0.0 0.00 0.00 0.00 84 1012.5
20260905141627 19 329 0.0 0.0 0.00 0.00 0.00 83 1012.5
20260905141531 19 311 0.0 0.0 0.00 0.00 0.00 83 1012.5
20260905141456 19 333 0.0 0.0 0.00 0.00 0.00 83 1012.5
20260905141329 19 351 0.0 0.0 0.00 0.00 0.00 85 1012.5
20260905141231 19 325 0.0 0.0 0.00 0.00 0.00 85 1012.5
20260905141155 19 333 0.0 0.0 0.00 0.00 0.00 85 1012.5
20260905141038 19 313 0.0 0.0 0.00 0.00 0.00 84 1012.5
20260905140932 19 325 0.0 0.0 0.00 0.00 0.00 84 1012.5
20260905140826 19 293 0.0 0.0 0.00 0.00 0.00 85 1012.5
20260905140730 19 341 0.0 0.0 0.00 0.00 0.00 85 1012.4
20260905140653 19 335 0.0 0.0 0.00 0.00 0.00 84 1012.4
20260905140557 19 332 0.0 0.0 0.00 0.00 0.00 84 1012.4
20260905140520 19 343 0.0 0.0 0.00 0.00 0.00 84 1012.4
20260905140324 19 342 0.0 0.0 0.00 0.00 0.00 83 1012.4
20260905140224 19 333 0.0 0.0 0.00 0.00 0.00 84 1012.4
20260905140127 19 360 0.0 0.0 0.00 0.00 0.00 84 1012.4
20260905140049 19 355 0.0 0.0 0.00 0.00 0.00 85 1012.5
20260905140012 19 345 0.0 0.0 0.00 0.00 0.00 84 1012.4
20260905135855 19 355 0.0 0.0 0.00 0.00 0.00 86 1012.4
20260905135817 19 330 0.0 0.0 0.00 0.00 0.00 86 1012.4
20260905135625 19 340 0.0 0.0 0.00 0.00 0.00 87 1012.4
20260905135546 19 348 0.0 0.0 0.00 0.00 0.00 87 1012.5
20260905135509 19 321 0.0 0.0 0.00 0.00 0.00 87 1012.5
20260905135349 18 355 0.0 0.0 0.00 0.00 0.00 87 1012.5
20260905135243 18 340 0.0 0.0 0.00 0.00 0.00 87 1012.5
20260905135204 18 355 0.0 0.0 0.00 0.00 0.00 87 1012.5
20260905135107 18 326 0.0 0.0 0.00 0.00 0.00 87 1012.5
20260905135029 18 339 0.0 0.0 0.00 0.00 0.00 87 1012.5
20260905134832 18 331 0.0 0.0 0.00 0.00 0.00 88 1012.5
20260905134737 18 342 0.0 0.0 0.00 0.00 0.00 87 1012.5
20260905134641 18 319 0.0 0.0 0.00 0.00 0.00 87 1012.5
20260905134604 18 338 0.0 0.0 0.00 0.00 0.00 88 1012.5
20260905134411 18 333 0.0 0.0 0.00 0.00 0.00 88 1012.4
20260905134305 18 331 0.0 0.0 0.00 0.00 0.00 87 1012.5
20260905134114 18 344 0.0 0.0 0.00 0.00 0.00 87 1012.5
20260905134014 18 322 0.0 0.0 0.00 0.00 0.00 87 1012.5
20260905133846 18 346 0.0 0.0 0.00 0.00 0.00 87 1012.5
20260905133739 18 315 0.0 0.0 0.00 0.00 0.00 87 1012.5
20260905133622 18 338 0.0 0.0 0.00 0.00 0.00 88 1012.4
20260905133544 18 317 0.0 0.0 0.00 0.00 0.00 88 1012.5
20260905133509 18 330 0.0 0.0 0.00 0.00 0.00 88 1012.5
20260905133352 18 346 0.0 0.0 0.00 0.00 0.00 88 1012.5
20260905133253 18 343 0.0 0.0 0.00 0.00 0.00 89 1012.5
20260905133123 18 303 0.0 0.0 0.00 0.00 0.00 88 1012.4
20260905133015 18 343 0.0 0.0 0.00 0.00 0.00 88 1012.4
20260905132826 18 342 0.0 0.0 0.00 0.00 0.00 88 1012.4
20260905132742 18 5 0.0 0.0 0.00 0.00 0.00 89 1012.4
20260905132611 18 321 0.0 0.0 0.00 0.00 0.00 89 1012.3
20260905132531 18 355 0.0 0.0 0.00 0.00 0.00 89 1012.3
20260905132402 18 346 0.0 0.0 0.00 0.00 0.00 89 1012.3
20260905132234 18 334 0.0 0.0 0.00 0.00 0.00 89 1012.3
20260905132123 18 315 0.0 0.0 0.00 0.00 0.00 89 1012.3
20260905132044 18 346 0.0 0.0 0.00 0.00 0.00 89 1012.3
20260905132005 18 339 0.0 0.0 0.00 0.00 0.00 88 1012.3
20260905131911 18 315 0.0 0.0 0.00 0.00 0.00 88 1012.3
20260905131810 18 313 0.0 0.0 0.00 0.00 0.00 89 1012.3
20260905131619 18 344 0.0 0.0 0.00 0.00 0.00 89 1012.3
20260905131533 18 344 0.0 0.0 0.00 0.00 0.00 89 1012.3
20260905131404 18 344 0.0 0.0 0.00 0.00 0.00 89 1012.3
20260905131314 18 331 0.0 0.0 0.00 0.00 0.00 89 1012.3
20260905131138 18 350 0.0 0.0 0.00 0.00 0.00 88 1012.3
20260905131025 18 292 0.0 0.0 0.00 0.00 0.00 88 1012.3
20260905130927 18 336 0.0 0.0 0.00 0.00 0.00 90 1012.3
20260905130846 18 317 0.0 0.0 0.00 0.00 0.00 89 1012.2
20260905130716 18 340 0.0 0.0 0.00 0.00 0.00 89 1012.2
20260905130631 18 311 0.0 0.0 0.00 0.00 0.00 90 1012.2
20260905130502 18 17 0.0 0.0 0.00 0.00 0.00 90 1012.1
20260905130422 18 324 0.0 0.0 0.00 0.00 0.00 90 1012.1
20260905130226 18 322 0.0 0.0 0.00 0.00 0.00 90 1012.1
20260905130147 18 331 0.0 0.0 0.00 0.00 0.00 89 1012.1
20260905130050 18 327 0.0 0.0 0.00 0.00 0.00 91 1012.1
20260905125950 18 343 0.0 0.0 0.00 0.00 0.00 91 1012.1
20260905125911 18 344 0.0 0.0 0.00 0.00 0.00 90 1012.2
20260905125818 18 346 0.0 0.0 0.00 0.00 0.00 91 1012.1
20260905125719 18 344 0.0 0.0 0.00 0.00 0.00 91 1012.1
20260905125548 18 319 0.0 0.0 0.00 0.00 0.00 91 1012.1
20260905125423 18 313 0.0 0.0 0.00 0.00 0.00 90 1012.1
20260905125326 18 327 0.0 0.0 0.00 0.00 0.00 91 1012.1
20260905125227 17 311 0.0 0.0 0.00 0.00 0.00 91 1012.1
20260905125004 17 347 0.0 0.0 0.00 0.00 0.00 90 1012.0
20260905124927 17 331 0.0 0.0 0.00 0.00 0.00 91 1012.0
20260905124728 17 338 0.0 0.0 0.00 0.00 0.00 91 1012.0
20260905124651 17 344 0.0 0.0 0.00 0.00 0.00 92 1012.1
20260905124557 17 355 0.0 0.0 0.00 0.00 0.00 91 1012.1
20260905124518 17 329 0.0 0.0 0.00 0.00 0.00 91 1012.1
20260905124349 17 330 0.0 0.0 0.00 0.00 0.00 91 1012.1
20260905124305 17 327 0.0 0.0 0.00 0.00 0.00 91 1012.1
20260905124051 17 323 0.0 0.0 0.00 0.00 0.00 91 1012.1
20260905124012 17 313 0.0 0.0 0.00 0.00 0.00 91 1012.1
20260905123915 17 317 0.0 0.0 0.00 0.00 0.00 91 1012.1
20260905123836 17 355 0.0 0.0 0.00 0.00 0.00 91 1012.1
20260905123705 17 346 0.0 0.0 0.00 0.00 0.00 91 1012.2
20260905123619 17 336 0.0 0.0 0.00 0.00 0.00 91 1012.1
20260905123427 17 337 0.0 0.0 0.00 0.00 0.00 91 1012.2
20260905123328 17 319 0.0 0.0 0.00 0.00 0.00 91 1012.2
20260905123159 17 321 0.0 0.0 0.00 0.00 0.00 91 1012.2
20260905123037 17 349 0.0 0.0 0.00 0.00 0.00 91 1012.1
20260905122957 17 337 0.0 0.0 0.00 0.00 0.00 91 1012.1
20260905122911 17 5 0.0 0.0 0.00 0.00 0.00 91 1012.1
20260905122718 17 329 0.0 0.0 0.00 0.00 0.00 91 1012.0
20260905122642 17 311 0.0 0.0 0.00 0.00 0.00 91 1012.0
20260905122534 17 355 0.0 0.0 0.00 0.00 0.00 91 1012.0
20260905122406 17 346 0.0 0.0 0.00 0.00 0.00 91 1011.9
20260905122307 17 331 0.0 0.0 0.00 0.00 0.00 91 1011.9
20260905122149 17 360 0.0 0.0 0.00 0.00 0.00 91 1011.9
20260905122028 17 338 0.0 0.0 0.00 0.00 0.00 91 1011.9
20260905121932 17 328 0.0 0.0 0.00 0.00 0.00 91 1011.9
20260905121839 17 5 0.0 0.0 0.00 0.00 0.00 91 1011.9
20260905121759 17 342 0.0 0.0 0.00 0.00 0.00 91 1011.9
20260905121702 17 351 0.0 0.0 0.00 0.00 0.00 91 1011.9
20260905121544 17 348 0.0 0.0 0.00 0.00 0.00 91 1011.9
20260905121449 17 340 0.0 0.0 0.00 0.00 0.00 91 1011.9
20260905121349 17 350 0.0 0.0 0.00 0.00 0.00 91 1011.9
20260905121132 17 340 0.0 0.0 0.00 0.00 0.00 91 1011.9
20260905121035 17 337 0.0 0.0 0.00 0.00 0.00 91 1011.9
20260905120923 17 332 0.0 0.0 0.00 0.00 0.00 91 1011.9
20260905120844 17 338 0.0 0.0 0.00 0.00 0.00 91 1011.9
20260905120725 17 328 0.0 0.0 0.00 0.00 0.00 91 1011.9
20260905120648 17 329 0.0 0.0 0.00 0.00 0.00 91 1011.8
20260905120456 17 355 0.0 0.0 0.00 0.00 0.00 91 1011.8
20260905120350 17 333 0.0 0.0 0.00 0.00 0.00 91 1011.8
20260905120158 17 24 0.0 0.0 0.00 0.00 0.00 91 1011.8
20260905120121 17 355 0.0 0.0 0.00 0.00 0.00 91 1011.8
20260905120034 17 355 0.0 0.0 0.00 0.00 0.00 91 1011.8
20260905115905 17 340 0.0 0.0 0.00 0.00 0.00 91 1011.8
20260905115826 17 339 0.0 0.0 0.00 0.00 0.00 91 1011.8
20260905115657 17 355 0.0 0.0 0.00 0.00 0.00 91 1011.8
20260905115611 17 343 0.0 0.0 0.00 0.00 0.00 91 1011.8
20260905115437 17 9 0.0 0.0 0.00 0.00 0.00 91 1011.8
20260905115334 17 336 0.0 0.0 0.00 0.00 0.00 91 1011.8
20260905115229 17 344 0.0 0.0 0.00 0.00 0.00 91 1011.8
20260905115150 17 17 0.0 0.0 0.00 0.00 0.00 91 1011.8
20260905115111 17 334 0.0 0.0 0.00 0.00 0.00 92 1011.8
20260905115014 17 340 0.0 0.0 0.00 0.00 0.00 91 1011.8
20260905114936 17 340 0.0 0.0 0.00 0.00 0.00 92 1011.8
20260905114807 17 338 0.0 0.0 0.00 0.00 0.00 92 1011.8
20260905114719 17 360 0.0 0.0 0.00 0.00 0.00 92 1011.7
20260905114423 17 360 0.0 0.0 0.00 0.00 0.00 92 1011.7
20260905114336 17 5 0.0 0.0 0.00 0.00 0.00 92 1011.7
20260905114135 17 342 0.0 0.0 0.00 0.00 0.00 92 1011.7
20260905114030 17 336 0.0 0.0 0.00 0.00 0.00 92 1011.7
20260905113952 17 355 0.0 3.2 0.00 0.00 0.00 92 1011.7
20260905113915 17 348 0.0 9.7 0.00 0.00 0.00 92 1011.7
20260905113830 17 355 0.0 9.7 0.00 0.00 0.00 92 1011.7
20260905113659 17 339 0.0 9.7 0.00 0.00 0.00 92 1011.7
20260905113620 17 329 0.0 9.7 0.00 0.00 0.00 93 1011.7
20260905113426 17 333 0.0 9.7 0.00 0.00 0.00 92 1011.8
20260905113351 17 333 0.0 9.7 0.00 0.00 0.00 92 1011.7
20260905113236 17 305 1.6 9.7 0.00 0.00 0.00 93 1011.8
20260905113156 17 340 4.8 9.7 0.00 0.00 0.00 93 1011.7
20260905113007 17 324 6.4 9.7 0.00 0.00 0.00 93 1011.7
20260905112841 17 341 4.8 9.7 0.00 0.00 0.00 93 1011.7
20260905112723 17 336 6.4 9.7 0.00 0.00 0.00 93 1011.7
20260905112645 17 331 6.4 9.7 0.00 0.00 0.00 93 1011.7
20260905112516 17 348 4.8 9.7 0.00 0.00 0.00 93 1011.6
20260905112431 17 351 6.4 9.7 0.00 0.00 0.00 93 1011.6
20260905112301 17 322 4.8 9.7 0.00 0.00 0.00 93 1011.7
20260905112226 17 324 1.6 4.8 0.00 0.00 0.00 93 1011.7
20260905112031 17 333 0.0 0.0 0.00 0.00 0.00 93 1011.6
20260905111952 17 333 0.0 0.0 0.00 0.00 0.00 93 1011.6
20260905111855 17 342 0.0 0.0 0.00 0.00 0.00 93 1011.6
20260905111755 17 342 0.0 0.0 0.00 0.00 0.00 93 1011.6
20260905111716 17 350 0.0 0.0 0.00 0.00 0.00 93 1011.6
20260905111620 17 344 0.0 0.0 0.00 0.00 0.00 93 1011.6
20260905111521 17 344 0.0 0.0 0.00 0.00 0.00 93 1011.6
20260905111442 17 344 0.0 0.0 0.00 0.00 0.00 93 1011.6
20260905111304 17 345 0.0 0.0 0.00 0.00 0.00 93 1011.6
20260905111226 17 330 0.0 0.0 0.00 0.00 0.00 93 1011.6
20260905111040 17 348 0.0 0.0 0.00 0.00 0.00 93 1011.6
20260905110934 17 339 0.0 0.0 0.00 0.00 0.00 93 1011.6
20260905110856 17 347 0.0 0.0 0.00 0.00 0.00 93 1011.6
20260905110748 17 355 0.0 0.0 0.00 0.00 0.00 93 1011.6
20260905110629 17 5 0.0 0.0 0.00 0.00 0.00 93 1011.5
20260905110533 17 338 0.0 0.0 0.00 0.00 0.00 93 1011.5
20260905110432 17 338 0.0 0.0 0.00 0.00 0.00 93 1011.5
20260905110303 16 355 0.0 0.0 0.00 0.00 0.00 94 1011.5
20260905110155 16 355 0.0 0.0 0.00 0.00 0.00 94 1011.4
20260905110004 16 355 0.0 0.0 0.00 0.00 0.00 94 1011.4
20260905105925 16 355 0.0 0.0 0.00 0.00 0.00 94 1011.4
20260905105733 16 342 0.0 0.0 0.00 0.00 0.00 94 1011.4
20260905105654 16 342 0.0 0.0 0.00 0.00 0.00 94 1011.4
20260905105558 16 355 0.0 0.0 0.00 0.00 0.00 94 1011.4
20260905105440 16 360 0.0 0.0 0.00 0.00 0.00 94 1011.4
20260905105325 16 348 0.0 0.0 0.00 0.00 0.00 94 1011.4
20260905105247 16 343 0.0 0.0 0.00 0.00 0.00 94 1011.4
20260905105208 16 15 0.0 0.0 0.00 0.00 0.00 94 1011.4
20260905105113 16 22 0.0 0.0 0.00 0.00 0.00 95 1011.4
20260905105033 16 335 0.0 0.0 0.00 0.00 0.00 95 1011.4
20260905104904 16 355 0.0 0.0 0.00 0.00 0.00 95 1011.3
20260905104824 16 355 0.0 0.0 0.00 0.00 0.00 95 1011.3
20260905104634 16 355 0.0 0.0 0.00 0.00 0.00 95 1011.2
20260905104548 16 355 0.0 0.0 0.00 0.00 0.00 95 1011.3
20260905104419 16 355 0.0 0.0 0.00 0.00 0.00 95 1011.3
20260905104341 16 355 0.0 0.0 0.00 0.00 0.00 95 1011.3
20260905104211 16 355 0.0 0.0 0.00 0.00 0.00 95 1011.3
20260905104115 16 355 0.0 0.0 0.00 0.00 0.00 95 1011.3
20260905104037 16 344 0.0 0.0 0.00 0.00 0.00 95 1011.3
20260905103845 16 355 0.0 0.0 0.00 0.00 0.00 95 1011.3
20260905103740 16 355 0.0 0.0 0.00 0.00 0.00 95 1011.3
20260905103627 16 355 0.0 0.0 0.00 0.00 0.00 96 1011.3
20260905103548 16 355 0.0 0.0 0.00 0.00 0.00 95 1011.3
20260905103512 16 355 0.0 0.0 0.00 0.00 0.00 96 1011.2
20260905103415 16 355 0.0 0.0 0.00 0.00 0.00 95 1011.2
20260905103337 16 355 0.0 0.0 0.00 0.00 0.00 95 1011.2
20260905103204 16 355 0.0 0.0 0.00 0.00 0.00 95 1011.3
20260905103119 16 355 0.0 0.0 0.00 0.00 0.00 95 1011.3
20260905102929 16 355 0.0 0.0 0.00 0.00 0.00 95 1011.3
20260905102840 16 350 0.0 0.0 0.00 0.00 0.00 95 1011.2
20260905102711 16 350 0.0 0.0 0.00 0.00 0.00 95 1011.2
20260905102632 16 5 0.0 0.0 0.00 0.00 0.00 95 1011.2
20260905102440 16 11 0.0 0.0 0.00 0.00 0.00 96 1011.2
20260905102340 16 11 0.0 0.0 0.00 0.00 0.00 96 1011.2
20260905102243 16 11 0.0 0.0 0.00 0.00 0.00 96 1011.2
20260905102204 16 11 0.0 0.0 0.00 0.00 0.00 96 1011.2
20260905102014 16 11 0.0 0.0 0.00 0.00 0.00 96 1011.2
20260905101928 16 11 0.0 0.0 0.00 0.00 0.00 96 1011.2
20260905101757 16 11 0.0 0.0 0.00 0.00 0.00 96 1011.2
20260905101721 16 11 0.0 0.0 0.00 0.00 0.00 96 1011.2
20260905101636 16 11 0.0 0.0 0.00 0.00 0.00 96 1011.2
20260905101505 16 11 0.0 0.0 0.00 0.00 0.00 96 1011.3
20260905101426 16 11 0.0 0.0 0.00 0.00 0.00 96 1011.2
20260905101311 16 11 0.0 0.0 0.00 0.00 0.00 95 1011.2
20260905101246 16 11 0.0 0.0 0.00 0.00 0.00 95 1011.2
20260905101038 16 11 0.0 0.0 0.00 0.00 0.00 95 1011.2
20260905100933 16 11 0.0 0.0 0.00 0.00 0.00 95 1011.2
20260905100854 16 11 0.0 0.0 0.00 0.00 0.00 95 1011.2
20260905100758 16 11 0.0 0.0 0.00 0.00 0.00 95 1011.3
20260905100638 16 11 0.0 0.0 0.00 0.00 0.00 95 1011.2
20260905100543 16 11 0.0 0.0 0.00 0.00 0.00 95 1011.2
20260905100503 16 11 0.0 0.0 0.00 0.00 0.00 95 1011.2
20260905100313 16 11 0.0 0.0 0.00 0.00 0.00 95 1011.2
20260905100227 16 11 0.0 0.0 0.00 0.00 0.00 95 1011.2
20260905100002 16 11 0.0 0.0 0.00 0.00 0.00 95 1011.2
20260905095755 16 11 0.0 0.0 0.00 0.00 0.00 96 1011.1
20260905095603 16 11 0.0 0.0 0.00 0.00 0.00 96 1011.2
20260905095524 16 11 0.0 0.0 0.00 0.00 0.00 96 1011.2
20260905095329 16 11 0.0 0.0 0.00 0.00 0.00 96 1011.2
20260905095250 15 11 0.0 0.0 0.00 0.00 0.00 96 1011.2
20260905095134 15 11 0.0 0.0 0.00 0.00 0.00 96 1011.2
20260905095054 15 11 0.0 0.0 0.00 0.00 0.00 95 1011.1
20260905095016 15 11 0.0 0.0 0.00 0.00 0.00 95 1011.1
20260905094921 15 11 0.0 0.0 0.00 0.00 0.00 96 1011.1
20260905094846 15 11 0.0 0.0 0.00 0.00 0.00 96 1011.1
20260905094715 15 11 0.0 0.0 0.00 0.00 0.00 95 1011.1
20260905094630 15 11 0.0 0.0 0.00 0.00 0.00 96 1011.1
20260905094500 15 11 0.0 0.0 0.00 0.00 0.00 95 1011.1
20260905094423 15 11 0.0 0.0 0.00 0.00 0.00 95 1011.1
20260905094135 15 11 0.0 0.0 0.00 0.00 0.00 95 1011.1
20260905094057 15 11 0.0 0.0 0.00 0.00 0.00 95 1011.1
20260905094001 15 11 0.0 0.0 0.00 0.00 0.00 95 1011.1
20260905093921 15 11 0.0 0.0 0.00 0.00 0.00 95 1011.1
20260905093751 15 11 0.0 0.0 0.00 0.00 0.00 95 1011.2
20260905093645 15 11 0.0 0.0 0.00 0.00 0.00 95 1011.2
20260905093515 15 11 0.0 0.0 0.00 0.00 0.00 95 1011.1
20260905093420 15 11 0.0 0.0 0.00 0.00 0.00 95 1011.1
20260905093249 15 11 0.0 0.0 0.00 0.00 0.00 95 1011.1
20260905093215 15 11 0.0 0.0 0.00 0.00 0.00 95 1011.1
20260905093026 15 11 0.0 0.0 0.00 0.00 0.00 95 1011.1
20260905092941 15 11 0.0 0.0 0.00 0.00 0.00 95 1011.1
20260905092842 15 11 0.0 0.0 0.00 0.00 0.00 95 1011.1
20260905092733 15 11 0.0 0.0 0.00 0.00 0.00 95 1011.1
20260905092633 15 11 0.0 0.0 0.00 0.00 0.00 95 1011.1
20260905092437 15 11 0.0 0.0 0.00 0.00 0.00 95 1011.1
20260905092342 15 11 0.0 0.0 0.00 0.00 0.00 95 1011.0
20260905092246 15 11 0.0 0.0 0.00 0.00 0.00 95 1011.1
20260905092146 15 11 0.0 0.0 0.00 0.00 0.00 95 1011.0
20260905092109 15 11 0.0 0.0 0.00 0.00 0.00 95 1011.1
20260905092014 15 11 0.0 0.0 0.00 0.00 0.00 95 1011.1
20260905091936 15 11 0.0 0.0 0.00 0.00 0.00 95 1011.1
20260905091805 15 11 0.0 0.0 0.00 0.00 0.00 95 1011.1
20260905091638 15 11 0.0 0.0 0.00 0.00 0.00 95 1011.0
20260905091523 15 11 0.0 0.0 0.00 0.00 0.00 95 1011.1
20260905091425 15 11 0.0 0.0 0.00 0.00 0.00 95 1011.1
20260905091352 15 11 0.0 0.0 0.00 0.00 0.00 95 1011.1
20260905091237 15 11 0.0 0.0 0.00 0.00 0.00 95 1011.1
20260905091113 15 11 0.0 0.0 0.00 0.00 0.00 95 1011.1
20260905091044 15 11 0.0 0.0 0.00 0.00 0.00 95 1011.0
20260905090940 15 11 0.0 0.0 0.00 0.00 0.00 95 1011.1
20260905090902 15 11 0.0 0.0 0.00 0.00 0.00 95 1011.1
20260905090807 15 11 0.0 0.0 0.00 0.00 0.00 95 1011.1
20260905090728 15 11 0.0 0.0 0.00 0.00 0.00 95 1011.1
20260905090536 15 11 0.0 0.0 0.00 0.00 0.00 96 1011.1
20260905090437 15 11 0.0 0.0 0.00 0.00 0.00 96 1011.1
20260905090341 15 11 0.0 0.0 0.00 0.00 0.00 95 1011.1
20260905090242 15 11 0.0 0.0 0.00 0.00 0.00 95 1011.1
20260905090113 15 11 0.0 0.0 0.00 0.00 0.00 95 1011.1
20260905090027 15 11 0.0 0.0 0.00 0.00 0.00 95 1011.1
20260905085857 15 11 0.0 0.0 0.00 0.00 0.00 95 1011.1
20260905085818 15 11 0.0 0.0 0.00 0.00 0.00 95 1011.1
20260905085641 15 11 0.0 0.0 0.00 0.00 0.00 95 1011.0
20260905085542 15 11 0.0 0.0 0.00 0.00 0.00 95 1011.0
20260905085430 15 11 0.0 0.0 0.00 0.00 0.00 95 1011.0
20260905085351 15 11 0.0 0.0 0.00 0.00 0.00 95 1011.0
20260905085251 15 11 0.0 0.0 0.00 0.00 0.00 95 1011.0
20260905085154 15 11 0.0 0.0 0.00 0.00 0.00 95 1011.0
20260905085115 15 11 0.0 0.0 0.00 0.00 0.00 95 1011.0
20260905084947 15 11 0.0 0.0 0.00 0.00 0.00 95 1011.0
20260905084842 15 11 0.0 0.0 0.00 0.00 0.00 95 1011.0
20260905084725 15 11 0.0 0.0 0.00 0.00 0.00 95 1011.0
20260905084645 15 11 0.0 0.0 0.00 0.00 0.00 95 1010.9
20260905084516 15 11 0.0 0.0 0.00 0.00 0.00 95 1011.0
20260905084431 15 11 0.0 0.0 0.00 0.00 0.00 95 1011.0
20260905084306 15 11 0.0 0.0 0.00 0.00 0.00 95 1010.9
20260905084228 15 11 0.0 0.0 0.00 0.00 0.00 95 1010.9
20260905084032 15 11 0.0 0.0 0.00 0.00 0.00 95 1010.9
20260905083952 15 11 0.0 0.0 0.00 0.00 0.00 95 1010.9
20260905083855 15 11 0.0 0.0 0.00 0.00 0.00 95 1010.9
20260905083817 15 11 0.0 0.0 0.00 0.00 0.00 95 1010.9
20260905083538 15 11 0.0 0.0 0.00 0.00 0.00 95 1010.9
20260905083431 15 11 0.0 0.0 0.00 0.00 0.00 95 1010.9
20260905083334 15 11 0.0 0.0 0.00 0.00 0.00 95 1010.9
20260905083239 15 11 0.0 0.0 0.00 0.00 0.00 95 1010.9
20260905083200 15 11 0.0 0.0 0.00 0.00 0.00 95 1010.9
20260905083105 15 11 0.0 0.0 0.00 0.00 0.00 95 1010.9
20260905083004 15 11 0.0 0.0 0.00 0.00 0.00 95 1010.9
20260905082835 15 11 0.0 0.0 0.00 0.00 0.00 95 1010.9
20260905082730 15 11 0.0 0.0 0.00 0.00 0.00 95 1010.9
20260905082540 15 11 0.0 0.0 0.00 0.00 0.00 95 1010.9
20260905082429 15 11 0.0 0.0 0.00 0.00 0.00 95 1010.9
20260905082309 15 11 0.0 0.0 0.00 0.00 0.00 95 1010.9
20260905082222 15 11 0.0 0.0 0.00 0.00 0.00 95 1010.9
20260905082052 15 11 0.0 0.0 0.00 0.00 0.00 95 1010.9
20260905081937 14 11 0.0 0.0 0.00 0.00 0.00 95 1010.9
20260905081839 14 11 0.0 0.0 0.00 0.00 0.00 95 1010.9
20260905081801 14 11 0.0 0.0 0.00 0.00 0.00 95 1010.9
20260905081640 14 11 0.0 0.0 0.00 0.00 0.00 95 1010.9
20260905081534 14 11 0.0 0.0 0.00 0.00 0.00 95 1010.9
20260905081404 14 11 0.0 0.0 0.00 0.00 0.00 95 1010.9
20260905081326 14 11 0.0 0.0 0.00 0.00 0.00 95 1010.9
20260905081131 14 11 0.0 0.0 0.00 0.00 0.00 95 1010.9
20260905081053 14 11 0.0 0.0 0.00 0.00 0.00 95 1010.9
20260905080956 14 11 0.0 0.0 0.00 0.00 0.00 95 1010.9
20260905080918 14 11 0.0 0.0 0.00 0.00 0.00 95 1010.9
20260905080724 14 11 0.0 0.0 0.00 0.00 0.00 95 1010.9
20260905080626 14 11 0.0 0.0 0.00 0.00 0.00 95 1010.9
20260905080531 14 11 0.0 0.0 0.00 0.00 0.00 95 1010.9
20260905080452 14 11 0.0 0.0 0.00 0.00 0.00 95 1010.9
20260905080412 14 11 0.0 0.0 0.00 0.00 0.00 95 1010.9
20260905080316 14 11 0.0 0.0 0.00 0.00 0.00 95 1010.9
20260905080216 14 11 0.0 0.0 0.00 0.00 0.00 95 1010.9
20260905080027 14 11 0.0 0.0 0.00 0.00 0.00 95 1010.9
20260905075923 14 11 0.0 0.0 0.00 0.00 0.00 95 1010.9
20260905075848 14 11 0.0 0.0 0.00 0.00 0.00 95 1010.9
20260905075752 14 11 0.0 0.0 0.00 0.00 0.00 95 1010.9
20260905075634 14 11 0.0 0.0 0.00 0.00 0.00 95 1010.9
20260905075538 14 11 0.0 0.0 0.00 0.00 0.00 95 1010.9
20260905075459 14 11 0.0 0.0 0.00 0.00 0.00 95 1010.9
20260905075307 14 11 0.0 0.0 0.00 0.00 0.00 95 1010.9
20260905075140 14 11 0.0 0.0 0.00 0.00 0.00 95 1010.9
20260905075023 14 11 0.0 0.0 0.00 0.00 0.00 95 1010.8
20260905074946 14 11 0.0 0.0 0.00 0.00 0.00 95 1010.9
20260905074846 14 11 0.0 0.0 0.00 0.00 0.00 95 1010.8
20260905074732 14 11 0.0 0.0 0.00 0.00 0.00 95 1010.8
20260905074654 14 11 0.0 0.0 0.00 0.00 0.00 95 1010.9
20260905074455 14 11 0.0 0.0 0.00 0.00 0.00 95 1010.9
20260905074417 14 11 0.0 0.0 0.00 0.00 0.00 94 1010.9
20260905074228 14 11 0.0 0.0 0.00 0.00 0.00 94 1010.9
20260905074140 14 11 0.0 0.0 0.00 0.00 0.00 94 1010.9
20260905074042 14 11 0.0 0.0 0.00 0.00 0.00 94 1010.9
20260905073945 14 11 0.0 0.0 0.00 0.00 0.00 94 1010.9
20260905073906 14 11 0.0 0.0 0.00 0.00 0.00 94 1010.9
20260905073735 14 11 0.0 0.0 0.00 0.00 0.00 94 1010.8
20260905073634 14 11 0.0 0.0 0.00 0.00 0.00 94 1010.8
20260905073503 14 11 0.0 0.0 0.00 0.00 0.00 94 1010.8
20260905073325 14 11 0.0 0.0 0.00 0.00 0.00 94 1010.8
20260905073246 14 11 0.0 0.0 0.00 0.00 0.00 94 1010.8
20260905073146 14 11 0.0 0.0 0.00 0.00 0.00 94 1010.9
20260905073051 14 11 0.0 0.0 0.00 0.00 0.00 94 1010.9
20260905072950 14 11 0.0 0.0 0.00 0.00 0.00 94 1010.8
20260905072759 14 11 0.0 0.0 0.00 0.00 0.00 94 1010.8
20260905072714 14 11 0.0 0.0 0.00 0.00 0.00 94 1010.8
20260905072524 14 11 0.0 0.0 0.00 0.00 0.00 94 1010.8
20260905072440 14 11 0.0 0.0 0.00 0.00 0.00 94 1010.8
20260905072313 14 11 0.0 0.0 0.00 0.00 0.00 94 1010.9
20260905072233 14 11 0.0 0.0 0.00 0.00 0.00 94 1010.9
20260905072105 14 11 0.0 0.0 0.00 0.00 0.00 94 1010.9
20260905072019 14 11 0.0 0.0 0.00 0.00 0.00 94 1010.9
20260905071849 14 11 0.0 0.0 0.00 0.00 0.00 94 1011.0
20260905071749 14 11 0.0 0.0 0.00 0.00 0.00 94 1010.9
20260905071622 14 11 0.0 0.0 0.00 0.00 0.00 94 1011.0
20260905071548 14 11 0.0 0.0 0.00 0.00 0.00 94 1011.0
20260905071509 14 11 0.0 0.0 0.00 0.00 0.00 94 1011.0
20260905071318 14 11 0.0 0.0 0.00 0.00 0.00 94 1011.0
20260905071231 14 11 0.0 0.0 0.00 0.00 0.00 94 1011.0
20260905071105 14 11 0.0 0.0 0.00 0.00 0.00 94 1011.0
20260905071026 14 11 0.0 0.0 0.00 0.00 0.00 94 1011.0
20260905070829 14 11 0.0 0.0 0.00 0.00 0.00 94 1011.1
20260905070725 14 11 0.0 0.0 0.00 0.00 0.00 94 1011.1
20260905070627 14 11 0.0 0.0 0.00 0.00 0.00 94 1011.1
20260905070542 14 11 0.0 0.0 0.00 0.00 0.00 94 1011.1
20260905070412 14 11 0.0 0.0 0.00 0.00 0.00 93 1011.1
20260905070335 14 11 0.0 0.0 0.00 0.00 0.00 93 1011.1
20260905070138 14 11 0.0 0.0 0.00 0.00 0.00 93 1011.1
20260905070044 15 11 0.0 0.0 0.00 0.00 0.00 93 1011.1
20260905065950 15 11 0.0 0.0 0.00 0.00 0.00 93 1011.1
20260905065830 15 11 0.0 0.0 0.00 0.00 0.00 93 1011.2
20260905065733 15 11 0.0 0.0 0.00 0.00 0.00 93 1011.1
20260905065654 15 11 0.0 0.0 0.00 0.00 0.00 93 1011.1
20260905065502 15 11 0.0 0.0 0.00 0.00 0.00 93 1011.2
20260905065416 15 11 0.0 0.0 0.00 0.00 0.00 93 1011.1
20260905065225 15 11 0.0 0.0 0.00 0.00 0.00 93 1011.2
20260905065140 15 11 0.0 0.0 0.00 0.00 0.00 93 1011.2
20260905065009 15 11 0.0 0.0 0.00 0.00 0.00 93 1011.2
20260905064935 15 11 0.0 0.0 0.00 0.00 0.00 93 1011.2
20260905064738 15 11 0.0 0.0 0.00 0.00 0.00 93 1011.2
20260905064659 15 11 0.0 0.0 0.00 0.00 0.00 94 1011.2
20260905064603 15 11 0.0 0.0 0.00 0.00 0.00 94 1011.2
20260905064524 15 11 0.0 0.0 0.00 0.00 0.00 93 1011.2
20260905064354 15 11 0.0 0.0 0.00 0.00 0.00 94 1011.1
20260905064248 15 11 0.0 0.0 0.00 0.00 0.00 94 1011.1
20260905064057 15 11 0.0 0.0 0.00 0.00 0.00 94 1011.1
20260905064017 15 11 0.0 0.0 0.00 0.00 0.00 94 1011.1
20260905063840 15 11 0.0 0.0 0.00 0.00 0.00 94 1011.1
20260905063800 15 11 0.0 0.0 0.00 0.00 0.00 94 1011.1
20260905063612 15 11 0.0 0.0 0.00 0.00 0.00 94 1011.1
20260905063526 15 11 0.0 0.0 0.00 0.00 0.00 94 1011.1
20260905063354 15 11 0.0 0.0 0.00 0.00 0.00 94 1011.0
20260905063253 15 11 0.0 0.0 0.00 0.00 0.00 94 1011.1
20260905063127 15 11 0.0 0.0 0.00 0.00 0.00 94 1011.1
20260905062957 15 11 0.0 0.0 0.00 0.00 0.00 94 1011.0
20260905062850 15 11 0.0 0.0 0.00 0.00 0.00 94 1011.0
20260905062640 15 11 0.0 0.0 0.00 0.00 0.00 93 1011.0
20260905062533 15 11 0.0 0.0 0.00 0.00 0.00 93 1011.0
20260905062422 15 11 0.0 0.0 0.00 0.00 0.00 93 1011.0
20260905062343 15 11 0.0 0.0 0.00 0.00 0.00 93 1011.0
20260905062306 15 11 0.0 0.0 0.00 0.00 0.00 93 1011.1
20260905062210 15 11 0.0 0.0 0.00 0.00 0.00 93 1011.0
20260905062131 15 11 0.0 0.0 0.00 0.00 0.00 93 1011.0
20260905062001 15 11 0.0 0.0 0.00 0.00 0.00 93 1011.1
20260905061853 15 11 0.0 0.0 0.00 0.00 0.00 93 1011.0
20260905061643 15 11 0.0 0.0 0.00 0.00 0.00 93 1011.0
20260905061557 15 11 0.0 0.0 0.00 0.00 0.00 93 1011.1
20260905061407 15 11 0.0 0.0 0.00 0.00 0.00 93 1011.1
20260905061329 15 11 0.0 0.0 0.00 0.00 0.00 93 1011.1
20260905061136 15 11 0.0 0.0 0.00 0.00 0.00 93 1011.1
20260905061037 15 11 0.0 0.0 0.00 0.00 0.00 93 1011.1
20260905060940 15 11 0.0 0.0 0.00 0.00 0.00 93 1011.1
20260905060818 15 11 0.0 0.0 0.00 0.00 0.00 93 1011.1
20260905060649 15 11 0.0 0.0 0.00 0.00 0.00 93 1011.1
20260905060604 15 11 0.0 0.0 0.00 0.00 0.00 93 1011.1
20260905060434 16 11 0.0 0.0 0.00 0.00 0.00 93 1011.1
20260905060336 16 11 0.0 0.0 0.00 0.00 0.00 93 1011.1
20260905060218 16 11 0.0 0.0 0.00 0.00 0.00 93 1011.1
20260905060140 16 11 0.0 0.0 0.00 0.00 0.00 93 1011.1
20260905060011 16 11 0.0 0.0 0.00 0.00 0.00 93 1011.1
20260905055925 16 11 0.0 0.0 0.00 0.00 0.00 94 1011.1
20260905055759 16 11 0.0 0.0 0.00 0.00 0.00 94 1011.1
20260905055721 16 11 0.0 0.0 0.00 0.00 0.00 94 1011.1
20260905055523 16 11 0.0 0.0 0.00 0.00 0.00 94 1011.0
20260905055426 16 11 0.0 0.0 0.00 0.00 0.00 93 1011.1
20260905055331 16 11 0.0 0.0 0.00 0.00 0.00 93 1011.1
20260905055252 16 11 0.0 0.0 0.00 0.00 0.00 93 1011.1
20260905055215 16 11 0.0 0.0 0.00 0.00 0.00 93 1011.0
20260905055117 16 11 0.0 0.0 0.00 0.00 0.00 94 1011.0
20260905055040 16 11 0.0 0.0 0.00 0.00 0.00 94 1011.0
20260905054909 16 11 0.0 0.0 0.00 0.00 0.00 94 1011.0
20260905054823 16 11 0.0 0.0 0.00 0.00 0.00 94 1011.0
20260905054657 16 11 0.0 0.0 0.00 0.00 0.00 94 1011.0
20260905054619 16 11 0.0 0.0 0.00 0.00 0.00 94 1011.1
20260905054448 16 11 0.0 0.0 0.00 0.00 0.00 94 1011.0
20260905054343 16 11 0.0 0.0 0.00 0.00 0.00 94 1011.0
20260905054304 16 11 0.0 0.0 0.00 0.00 0.00 94 1011.0
20260905054208 16 11 0.0 0.0 0.00 0.00 0.00 94 1011.0
20260905054107 16 11 0.0 0.0 0.00 0.00 0.00 94 1011.0
20260905054030 16 11 0.0 0.0 0.00 0.00 0.00 94 1011.0
20260905053921 16 11 0.0 0.0 0.00 0.00 0.00 94 1011.0
20260905053821 16 11 0.0 0.0 0.00 0.00 0.00 94 1011.0
20260905053627 16 11 0.0 0.0 0.00 0.00 0.00 94 1011.0
20260905053532 16 11 0.0 0.0 0.00 0.00 0.00 94 1011.0
20260905053435 16 11 0.0 0.0 0.00 0.00 0.00 94 1011.0
20260905053357 16 11 0.0 0.0 0.00 0.00 0.00 94 1011.0
20260905053319 16 11 0.0 0.0 0.00 0.00 0.00 94 1011.0
20260905053222 16 11 0.0 0.0 0.00 0.00 0.00 94 1011.0
20260905053123 16 11 0.0 0.0 0.00 0.00 0.00 94 1011.0
20260905052935 16 11 0.0 0.0 0.00 0.00 0.00 94 1011.0
20260905052828 16 11 0.0 0.0 0.00 0.00 0.00 94 1011.0
20260905052730 16 11 0.0 0.0 0.00 0.00 0.00 94 1011.0
20260905052636 16 11 0.0 0.0 0.00 0.00 0.00 94 1011.0
20260905052559 16 11 0.0 0.0 0.00 0.00 0.00 94 1011.0
20260905052423 16 11 0.0 0.0 0.00 0.00 0.00 94 1011.0
20260905052340 16 11 0.0 0.0 0.00 0.00 0.00 94 1011.0
20260905052240 16 11 0.0 0.0 0.00 0.00 0.00 94 1011.0
20260905052125 16 11 0.0 0.0 0.00 0.00 0.00 94 1011.1
20260905052046 16 11 0.0 0.0 0.00 0.00 0.00 94 1011.0
20260905051931 16 11 0.0 0.0 0.00 0.00 0.00 94 1011.1
20260905051852 16 11 0.0 0.0 0.00 0.00 0.00 94 1011.0
20260905051727 16 11 0.0 0.0 0.00 0.00 0.00 94 1011.1
20260905051648 16 11 0.0 0.0 0.00 0.00 0.00 94 1011.1
20260905051610 16 11 0.0 0.0 0.00 0.00 0.00 94 1011.1
20260905051513 16 11 0.0 0.0 0.00 0.00 0.00 94 1011.1
20260905051433 16 11 0.0 0.0 0.00 0.00 0.00 94 1011.1
20260905051305 16 11 0.0 0.0 0.00 0.00 0.00 94 1011.1
20260905051218 16 11 0.0 0.0 0.00 0.00 0.00 94 1011.1
20260905051050 16 11 0.0 0.0 0.00 0.00 0.00 94 1011.1
20260905050949 16 11 0.0 0.0 0.00 0.00 0.00 94 1011.2
20260905050834 16 11 0.0 0.0 0.00 0.00 0.00 94 1011.2
20260905050805 16 11 0.0 0.0 0.00 0.00 0.00 94 1011.2
20260905050709 16 11 0.0 0.0 0.00 0.00 0.00 94 1011.2
20260905050612 16 11 0.0 0.0 0.00 0.00 0.00 94 1011.2
20260905050533 16 11 0.0 0.0 0.00 0.00 0.00 94 1011.2
20260905050337 16 11 0.0 0.0 0.00 0.00 0.00 94 1011.2
20260905050239 16 11 0.0 0.0 0.00 0.00 0.00 94 1011.2
20260905050143 16 11 0.0 0.0 0.00 0.00 0.00 94 1011.2
20260905050105 16 11 0.0 0.0 0.00 0.00 0.00 94 1011.2
20260905045913 16 11 0.0 0.0 0.00 0.00 0.00 94 1011.2
20260905045830 16 11 0.0 0.0 0.00 0.00 0.00 94 1011.2
20260905045639 16 11 0.0 0.0 0.00 0.00 0.00 94 1011.2
20260905045606 16 11 0.0 0.0 0.00 0.00 0.00 94 1011.1
20260905045417 16 11 0.0 0.0 0.00 0.00 0.00 94 1011.2
20260905045339 16 11 0.0 0.0 0.00 0.00 0.00 94 1011.1
20260905045147 16 11 0.0 0.0 0.00 0.00 0.00 94 1011.2
20260905045024 16 11 0.0 0.0 0.00 0.00 0.00 94 1011.2
20260905044929 16 11 0.0 0.0 0.00 0.00 0.00 94 1011.2
20260905044849 16 11 0.0 0.0 0.00 0.00 0.00 94 1011.2
20260905044718 16 11 0.0 0.0 0.00 0.00 0.00 94 1011.2
20260905044632 16 11 0.0 0.0 0.00 0.00 0.00 94 1011.2
20260905044441 16 11 0.0 0.0 0.00 0.00 0.00 94 1011.2
20260905044341 16 11 0.0 0.0 0.00 0.00 0.00 94 1011.2
20260905044225 16 11 0.0 0.0 0.00 0.00 0.00 94 1011.2
20260905044147 16 11 0.0 0.0 0.00 0.00 0.00 94 1011.2
20260905044110 16 11 0.0 0.0 0.00 0.00 0.00 94 1011.2
20260905043955 16 11 0.0 0.0 0.00 0.00 0.00 94 1011.2
20260905043915 16 11 0.0 0.0 0.00 0.00 0.00 94 1011.2
20260905043745 16 11 0.0 0.0 0.00 0.00 0.00 93 1011.2
20260905043638 16 11 0.0 0.0 0.00 0.00 0.00 93 1011.2
20260905043508 16 11 0.0 0.0 0.00 0.00 0.00 93 1011.2
20260905043407 16 11 0.0 0.0 0.00 0.00 0.00 93 1011.2
20260905043309 16 11 0.0 0.0 0.00 0.00 0.00 93 1011.2
20260905043216 16 11 0.0 0.0 0.00 0.00 0.00 94 1011.2
20260905043137 16 11 0.0 0.0 0.00 0.00 0.00 94 1011.2
20260905043007 16 11 0.0 0.0 0.00 0.00 0.00 94 1011.2
20260905042920 16 11 0.0 0.0 0.00 0.00 0.00 94 1011.2
20260905042729 16 11 0.0 0.0 0.00 0.00 0.00 94 1011.2
20260905042643 16 11 0.0 0.0 0.00 0.00 0.00 94 1011.2
20260905042514 16 11 0.0 0.0 0.00 0.00 0.00 93 1011.1
20260905042436 16 11 0.0 0.0 0.00 0.00 0.00 93 1011.1
20260905042240 16 11 0.0 0.0 0.00 0.00 0.00 93 1011.2
20260905042201 16 11 0.0 0.0 0.00 0.00 0.00 93 1011.2
20260905042104 16 11 0.0 0.0 0.00 0.00 0.00 93 1011.2
20260905042009 16 11 0.0 0.0 0.00 0.00 0.00 93 1011.2
20260905041728 16 11 0.0 0.0 0.00 0.00 0.00 93 1011.2
20260905041622 16 11 0.0 0.0 0.00 0.00 0.00 93 1011.2
20260905041553 16 11 0.0 0.0 0.00 0.00 0.00 93 1011.3
20260905041457 16 11 0.0 0.0 0.00 0.00 0.00 93 1011.2
20260905041419 16 11 0.0 0.0 0.00 0.00 0.00 93 1011.2
20260905041248 16 11 0.0 0.0 0.00 0.00 0.00 93 1011.2
20260905041125 16 11 0.0 0.0 0.00 0.00 0.00 93 1011.2
20260905041030 16 11 0.0 0.0 0.00 0.00 0.00 93 1011.2
20260905040955 16 11 0.0 0.0 0.00 0.00 0.00 93 1011.2
20260905040804 16 11 0.0 0.0 0.00 0.00 0.00 93 1011.2
20260905040727 16 11 0.0 0.0 0.00 0.00 0.00 93 1011.2
20260905040548 16 11 0.0 0.0 0.00 0.00 0.00 93 1011.2
20260905040329 16 11 0.0 0.0 0.00 0.00 0.00 93 1011.2
20260905040230 16 11 0.0 0.0 0.00 0.00 0.00 93 1011.2
20260905040134 16 11 0.0 0.0 0.00 0.00 0.00 93 1011.2
20260905040036 16 11 0.0 0.0 0.00 0.00 0.00 93 1011.2
20260905035959 16 11 0.0 0.0 0.00 0.00 0.00 93 1011.4
20260905035826 16 11 0.0 0.0 0.00 0.00 0.00 93 1011.3
20260905035743 16 11 0.0 0.0 0.00 0.00 0.00 93 1011.4
20260905035703 16 11 0.0 0.0 0.00 0.00 0.00 93 1011.4
20260905035605 16 11 0.0 0.0 0.00 0.00 0.00 93 1011.3
20260905035520 16 11 0.0 0.0 0.00 0.00 0.00 93 1011.3
20260905035332 16 11 0.0 0.0 0.00 0.00 0.00 93 1011.3
20260905035247 16 11 0.0 0.0 0.00 0.00 0.00 93 1011.3
20260905035037 16 11 0.0 0.0 0.00 0.00 0.00 93 1011.3
20260905034952 16 11 0.0 0.0 0.00 0.00 0.00 92 1011.3
20260905034821 16 11 0.0 0.0 0.00 0.00 0.00 92 1011.3
20260905034747 16 11 0.0 0.0 0.00 0.00 0.00 92 1011.3
20260905034529 16 11 0.0 0.0 0.00 0.00 0.00 92 1011.3
20260905034450 16 11 0.0 0.0 0.00 0.00 0.00 92 1011.3
20260905034334 16 11 0.0 0.0 0.00 0.00 0.00 92 1011.3
20260905034257 16 11 0.0 0.0 0.00 0.00 0.00 92 1011.2
20260905034218 16 11 0.0 0.0 0.00 0.00 0.00 92 1011.3
20260905034121 16 11 0.0 0.0 0.00 0.00 0.00 92 1011.4
20260905034042 16 11 0.0 0.0 0.00 0.00 0.00 92 1011.4
20260905033914 16 11 0.0 0.0 0.00 0.00 0.00 92 1011.3
20260905033829 16 11 0.0 0.0 0.00 0.00 0.00 92 1011.3
20260905033642 16 11 0.0 0.0 0.00 0.00 0.00 92 1011.3
20260905033539 16 11 0.0 0.0 0.00 0.00 0.00 92 1011.2
20260905033423 16 11 0.0 0.0 0.00 0.00 0.00 93 1011.3
20260905033345 16 11 0.0 0.0 0.00 0.00 0.00 93 1011.2
20260905033215 16 11 0.0 0.0 0.00 0.00 0.00 93 1011.2
20260905033129 16 11 0.0 0.0 0.00 0.00 0.00 93 1011.2
20260905032959 16 11 0.0 0.0 0.00 0.00 0.00 93 1011.2
20260905032920 16 11 0.0 0.0 0.00 0.00 0.00 93 1011.1
20260905032725 16 11 0.0 0.0 0.00 0.00 0.00 92 1011.2
20260905032632 16 11 0.0 0.0 0.00 0.00 0.00 92 1011.1
20260905032536 16 11 0.0 0.0 0.00 0.00 0.00 92 1011.1
20260905032458 16 11 0.0 0.0 0.00 0.00 0.00 92 1011.2
20260905032306 16 11 0.0 0.0 0.00 0.00 0.00 92 1011.1
20260905032221 16 11 0.0 0.0 0.00 0.00 0.00 92 1011.1
20260905032032 16 11 0.0 0.0 0.00 0.00 0.00 92 1011.1
20260905031947 16 11 0.0 0.0 0.00 0.00 0.00 92 1011.1
20260905031817 16 11 0.0 0.0 0.00 0.00 0.00 92 1011.1
20260905031717 16 11 0.0 0.0 0.00 0.00 0.00 92 1011.1
20260905031620 16 11 0.0 0.0 0.00 0.00 0.00 92 1011.1
20260905031540 16 11 0.0 0.0 0.00 0.00 0.00 92 1011.1
20260905031336 16 11 0.0 0.0 0.00 0.00 0.00 92 1011.1
20260905031241 16 11 0.0 0.0 0.00 0.00 0.00 92 1011.1
20260905031202 16 11 0.0 0.0 0.00 0.00 0.00 92 1011.1
20260905031108 16 11 0.0 0.0 0.00 0.00 0.00 92 1011.1
20260905031040 16 11 0.0 0.0 0.00 0.00 0.00 92 1011.1
20260905030910 16 11 0.0 0.0 0.00 0.00 0.00 92 1011.1
20260905030824 16 11 0.0 0.0 0.00 0.00 0.00 92 1011.1
20260905030635 17 11 0.0 0.0 0.00 0.00 0.00 92 1011.2
20260905030550 16 11 0.0 0.0 0.00 0.00 0.00 92 1011.1
20260905030419 17 11 0.0 0.0 0.00 0.00 0.00 92 1011.2
20260905030341 17 11 0.0 0.0 0.00 0.00 0.00 92 1011.2
20260905030216 17 11 0.0 0.0 0.00 0.00 0.00 92 1011.2
20260905030128 17 11 0.0 0.0 0.00 0.00 0.00 92 1011.2
20260905025939 17 11 0.0 0.0 0.00 0.00 0.00 92 1011.3
20260905025854 17 11 0.0 0.0 0.00 0.00 0.00 92 1011.2
20260905025642 17 11 0.0 0.0 0.00 0.00 0.00 92 1011.2
20260905025537 17 11 0.0 0.0 0.00 0.00 0.00 91 1011.2
20260905025500 17 11 0.0 0.0 0.00 0.00 0.00 92 1011.2
20260905025405 17 11 0.0 0.0 0.00 0.00 0.00 92 1011.3
20260905025326 17 11 0.0 0.0 0.00 0.00 0.00 92 1011.3
20260905025134 17 11 0.0 0.0 0.00 0.00 0.00 92 1011.2
20260905025036 17 11 0.0 0.0 0.00 0.00 0.00 92 1011.2
20260905024939 17 11 0.0 0.0 0.00 0.00 0.00 92 1011.2
20260905024839 17 11 0.0 0.0 0.00 0.00 0.00 92 1011.2
20260905024708 17 11 0.0 0.0 0.00 0.00 0.00 92 1011.2
20260905024624 17 11 0.0 0.0 0.00 0.00 0.00 92 1011.2
20260905024433 17 11 0.0 0.0 0.00 0.00 0.00 92 1011.3
20260905024349 17 11 0.0 0.0 0.00 0.00 0.00 92 1011.3
20260905024220 17 11 0.0 0.0 0.00 0.00 0.00 92 1011.3
20260905024143 17 11 0.0 0.0 0.00 0.00 0.00 92 1011.3
20260905024005 17 11 0.0 0.0 0.00 0.00 0.00 92 1011.4
20260905023932 17 11 0.0 0.0 0.00 0.00 0.00 92 1011.4
20260905023742 17 11 0.0 0.0 0.00 0.00 0.00 92 1011.3
20260905023637 17 11 0.0 0.0 0.00 0.00 0.00 92 1011.3
20260905023600 17 11 0.0 0.0 0.00 0.00 0.00 92 1011.3
20260905023515 17 11 0.0 0.0 0.00 0.00 0.00 92 1011.3
20260905023436 17 11 0.0 0.0 0.00 0.00 0.00 92 1011.3
20260905023255 17 11 0.0 0.0 0.00 0.00 0.00 92 1011.3
20260905023210 17 11 0.0 0.0 0.00 0.00 0.00 92 1011.3
20260905023020 17 11 0.0 0.0 0.00 0.00 0.00 92 1011.2
20260905022941 17 11 0.0 0.0 0.00 0.00 0.00 92 1011.2
20260905022813 17 11 0.0 0.0 0.00 0.00 0.00 92 1011.4
20260905022730 17 11 0.0 0.0 0.00 0.00 0.00 92 1011.4
20260905022540 17 11 0.0 0.0 0.00 0.00 0.00 91 1011.4
20260905022434 17 11 0.0 0.0 0.00 0.00 0.00 91 1011.4
20260905022357 17 11 0.0 0.0 0.00 0.00 0.00 91 1011.4
20260905022301 17 11 0.0 0.0 0.00 0.00 0.00 91 1011.4
20260905022141 17 11 0.0 0.0 0.00 0.00 0.00 91 1011.5
20260905022035 17 11 0.0 0.0 0.00 0.00 0.00 91 1011.5
20260905021958 17 11 0.0 0.0 0.00 0.00 0.00 91 1011.5
20260905021900 17 11 0.0 0.0 0.00 0.00 0.00 90 1011.6
20260905021827 17 11 0.0 0.0 0.00 0.00 0.00 90 1011.6
20260905021657 17 11 0.0 0.0 0.00 0.00 0.00 90 1011.6
20260905021611 17 11 0.0 0.0 0.00 0.00 0.00 90 1011.6
20260905021442 17 11 0.0 0.0 0.00 0.00 0.00 90 1011.6
20260905021342 17 11 0.0 0.0 0.00 0.00 0.00 90 1011.6
20260905021153 17 11 0.0 0.0 0.00 0.00 0.00 90 1011.6
20260905021055 17 11 0.0 0.0 0.00 0.00 0.00 90 1011.6
20260905021016 17 11 0.0 0.0 0.00 0.00 0.00 90 1011.6
20260905020846 17 11 0.0 0.0 0.00 0.00 0.00 90 1011.6
20260905020742 17 11 0.0 0.0 0.00 0.00 0.00 90 1011.6
20260905020702 17 11 0.0 0.0 0.00 0.00 0.00 90 1011.7
20260905020605 17 11 0.0 0.0 0.00 0.00 0.00 90 1011.7
20260905020531 17 11 0.0 0.0 0.00 0.00 0.00 90 1011.7
20260905020401 17 11 0.0 0.0 0.00 0.00 0.00 89 1011.7
20260905020317 17 11 0.0 0.0 0.00 0.00 0.00 89 1011.7
20260905020126 17 11 0.0 0.0 0.00 0.00 0.00 89 1011.7
20260905020041 17 11 0.0 0.0 0.00 0.00 0.00 89 1011.6
20260905015831 17 11 0.0 0.0 0.00 0.00 0.00 90 1011.6
20260905015746 17 11 0.0 0.0 0.00 0.00 0.00 90 1011.6
20260905015617 17 11 0.0 0.0 0.00 0.00 0.00 90 1011.5
20260905015540 17 11 0.0 0.0 0.00 0.00 0.00 90 1011.5
20260905015328 17 11 0.0 1.6 0.00 0.00 0.00 90 1011.6
20260905015249 17 11 0.0 3.2 0.00 0.00 0.00 90 1011.5
20260905015152 17 11 0.0 4.8 0.00 0.00 0.00 89 1011.6
20260905015115 17 11 0.0 4.8 0.00 0.00 0.00 89 1011.6
20260905014943 17 11 0.0 4.8 0.00 0.00 0.00 89 1011.5
20260905014840 17 11 0.0 4.8 0.00 0.00 0.00 89 1011.6
20260905014723 17 11 0.0 4.8 0.00 0.00 0.00 89 1011.6
20260905014646 17 11 0.0 4.8 0.00 0.00 0.00 89 1011.6
20260905014515 17 11 1.6 4.8 0.00 0.00 0.00 89 1011.7
20260905014432 17 11 1.6 4.8 0.00 0.00 0.00 90 1011.7
20260905014246 17 93 0.0 0.0 0.00 0.00 0.00 90 1011.7
20260905014140 17 93 0.0 0.0 0.00 0.00 0.00 90 1011.7
20260905014024 17 93 0.0 0.0 0.00 0.00 0.00 90 1011.7
20260905013945 17 93 0.0 0.0 0.00 0.00 0.00 90 1011.7
20260905013905 17 93 0.0 0.0 0.00 0.00 0.00 90 1011.7
20260905013811 17 93 0.0 0.0 0.00 0.00 0.00 90 1011.7
20260905013732 17 93 0.0 0.0 0.00 0.00 0.00 90 1011.7
20260905013545 17 93 0.0 0.0 0.00 0.00 0.00 90 1011.7
20260905013437 17 93 0.0 0.0 0.00 0.00 0.00 90 1011.7
20260905013402 17 93 0.0 0.0 0.00 0.00 0.00 90 1011.7
20260905013306 17 93 0.0 0.0 0.00 0.00 0.00 90 1011.7
20260905013228 17 93 0.0 0.0 0.00 0.00 0.00 90 1011.7
20260905013032 17 93 0.0 0.0 0.00 0.00 0.00 90 1011.7
20260905012932 17 93 0.0 0.0 0.00 0.00 0.00 89 1011.7
20260905012836 17 93 0.0 0.0 0.00 0.00 0.00 89 1011.7
20260905012737 17 93 0.0 0.0 0.00 0.00 0.00 89 1011.7
20260905012606 17 93 0.0 0.0 0.00 0.00 0.00 89 1011.6
20260905012532 17 93 0.0 0.0 0.00 0.00 0.00 89 1011.6
20260905012341 17 93 0.0 0.0 0.00 0.00 0.00 89 1011.6
20260905012240 17 93 0.0 0.0 0.00 0.00 0.00 89 1011.6
20260905012126 17 93 0.0 0.0 0.00 0.00 0.00 89 1011.6
20260905012046 17 93 0.0 0.0 0.00 0.00 0.00 89 1011.6
20260905011918 17 93 0.0 0.0 0.00 0.00 0.00 88 1011.6
20260905011833 17 93 0.0 0.0 0.00 0.00 0.00 88 1011.6
20260905011701 17 93 0.0 0.0 0.00 0.00 0.00 88 1011.5
20260905011533 17 93 0.0 0.0 0.00 0.00 0.00 88 1011.5
20260905011453 17 93 0.0 0.0 0.00 0.00 0.00 88 1011.5
20260905011415 17 93 0.0 0.0 0.00 0.00 0.00 88 1011.5
20260905011237 18 93 0.0 0.0 0.00 0.00 0.00 88 1011.5
20260905011142 17 93 0.0 0.0 0.00 0.00 0.00 88 1011.6
20260905011027 17 93 0.0 0.0 0.00 0.00 0.00 88 1011.6
20260905010948 17 93 0.0 0.0 0.00 0.00 0.00 88 1011.6
20260905010819 18 93 0.0 0.0 0.00 0.00 0.00 88 1011.6
20260905010735 18 93 0.0 0.0 0.00 0.00 0.00 88 1011.6
20260905010513 18 93 0.0 0.0 0.00 0.00 0.00 88 1011.6
20260905010435 18 93 0.0 0.0 0.00 0.00 0.00 88 1011.6
20260905010240 18 93 0.0 0.0 0.00 0.00 0.00 87 1011.6
20260905010200 18 93 0.0 0.0 0.00 0.00 0.00 87 1011.6
20260905010028 18 93 0.0 0.0 0.00 0.00 0.00 87 1011.6
20260905005858 18 93 0.0 0.0 0.00 0.00 0.00 87 1011.6
20260905005814 18 93 0.0 0.0 0.00 0.00 0.00 87 1011.6
20260905005623 18 93 0.0 0.0 0.00 0.00 0.00 87 1011.6
20260905005541 18 93 0.0 0.0 0.00 0.00 0.00 87 1011.6
20260905005409 18 93 0.0 0.0 0.00 0.00 0.00 87 1011.6
20260905005332 18 93 0.0 0.0 0.00 0.00 0.00 86 1011.6
20260905005135 18 93 0.0 0.0 0.00 0.00 0.00 86 1011.6
20260905005038 18 93 0.0 0.0 0.00 0.00 0.00 86 1011.7
20260905004941 18 93 0.0 0.0 0.00 0.00 0.00 87 1011.7
20260905004846 18 93 0.0 0.0 0.00 0.00 0.00 87 1011.7
20260905004717 18 93 0.0 0.0 0.00 0.00 0.00 86 1011.6
20260905004633 18 93 0.0 0.0 0.00 0.00 0.00 86 1011.6
20260905004504 18 93 0.0 0.0 0.00 0.00 0.00 86 1011.6
20260905004426 18 93 0.0 0.0 0.00 0.00 0.00 86 1011.6
20260905004308 18 93 0.0 0.0 0.00 0.00 0.00 86 1011.6
20260905004226 18 93 0.0 0.0 0.00 0.00 0.00 86 1011.6
20260905004028 18 93 0.0 0.0 0.00 0.00 0.00 86 1011.6
20260905003929 18 93 0.0 0.0 0.00 0.00 0.00 86 1011.6
20260905003833 18 93 0.0 0.0 0.00 0.00 0.00 86 1011.6
20260905003738 18 93 0.0 0.0 0.00 0.00 0.00 85 1011.6
20260905003659 18 93 0.0 0.0 0.00 0.00 0.00 85 1011.6
20260905003603 18 93 0.0 0.0 0.00 0.00 0.00 85 1011.5
20260905003524 18 93 0.0 0.0 0.00 0.00 0.00 85 1011.5
20260905003327 18 93 0.0 0.0 0.00 0.00 0.00 85 1011.5
20260905003228 18 93 0.0 0.0 0.00 0.00 0.00 85 1011.5
20260905003131 18 93 0.0 0.0 0.00 0.00 0.00 85 1011.4
20260905003053 18 93 0.0 0.0 0.00 0.00 0.00 85 1011.4
20260905003015 18 93 0.0 0.0 0.00 0.00 0.00 85 1011.4
20260905002823 18 93 0.0 0.0 0.00 0.00 0.00 85 1011.4
20260905002737 18 93 0.0 0.0 0.00 0.00 0.00 85 1011.4
20260905002527 18 93 0.0 0.0 0.00 0.00 0.00 85 1011.4
20260905002441 18 93 0.0 0.0 0.00 0.00 0.00 85 1011.4
20260905002229 18 93 0.0 0.0 0.00 0.00 0.00 85 1011.3
20260905002145 18 93 0.0 0.0 0.00 0.00 0.00 84 1011.3
20260905001953 18 93 0.0 0.0 0.00 0.00 0.00 84 1011.3
20260905001853 18 93 0.0 0.0 0.00 0.00 0.00 84 1011.3
20260905001737 18 93 0.0 0.0 0.00 0.00 0.00 84 1011.3
20260905001659 18 93 0.0 0.0 0.00 0.00 0.00 84 1011.3
20260905001513 18 93 0.0 0.0 0.00 0.00 0.00 84 1011.4
20260905001429 18 93 0.0 0.0 0.00 0.00 0.00 84 1011.4
20260905001259 18 93 0.0 0.0 0.00 0.00 0.00 84 1011.3
20260905001222 18 93 0.0 0.0 0.00 0.00 0.00 84 1011.3
20260905001136 18 93 0.0 0.0 0.00 0.00 0.00 84 1011.3
20260905001008 18 93 0.0 0.0 0.00 0.00 0.00 83 1011.2
20260905000908 18 93 0.0 0.0 0.00 0.00 0.00 83 1011.3
20260905000752 18 93 0.0 0.0 0.00 0.00 0.00 83 1011.2
20260905000714 18 93 0.0 0.0 0.00 0.00 0.00 83 1011.2
20260905000427 18 93 0.0 0.0 0.00 0.00 0.00 83 1011.2
20260905000328 19 93 0.0 0.0 0.00 0.00 0.00 82 1011.2
20260905000255 19 93 0.0 0.0 0.00 0.00 0.00 82 1011.2
20260905000218 19 93 0.0 0.0 0.00 0.00 0.00 82 1011.1
20260905000139 19 93 0.0 0.0 0.00 0.00 0.00 82 1011.1
20260905000008 19 93 0.0 0.0 0.00 0.00 0.00 82 1011.1
20260904235923 19 93 0.0 0.0 0.00 0.00 0.00 82 1011.1
20260904235732 19 93 0.0 0.0 0.00 0.00 0.00 82 1011.1
20260904235627 19 93 0.0 0.0 0.00 0.00 0.00 81 1011.0
20260904235548 19 93 0.0 0.0 0.00 0.00 0.00 81 1011.0
20260904235452 19 93 0.0 0.0 0.00 0.00 0.00 81 1011.0
20260904235352 19 93 0.0 0.0 0.00 0.00 0.00 81 1011.0
20260904235315 19 93 0.0 0.0 0.00 0.00 0.00 81 1011.0
20260904235202 19 93 0.0 3.2 0.00 0.00 0.00 81 1011.0
20260904235122 19 93 0.0 3.2 0.00 0.00 0.00 81 1011.0
20260904234952 19 93 0.0 3.2 0.00 0.00 0.00 81 1011.0
20260904234916 19 93 0.0 3.2 0.00 0.00 0.00 81 1011.0
20260904234726 19 93 0.0 3.2 0.00 0.00 0.00 80 1010.9
20260904234643 19 93 0.0 3.2 0.00 0.00 0.00 80 1010.9
20260904234431 19 93 0.0 3.2 0.00 0.00 0.00 80 1010.9
20260904234345 19 93 0.0 3.2 0.00 0.00 0.00 80 1010.9
20260904234216 20 36 0.0 3.2 0.00 0.00 0.00 81 1010.9
20260904234137 20 36 1.6 3.2 0.00 0.00 0.00 81 1010.9
20260904234009 20 36 0.0 3.2 0.00 0.00 0.00 80 1010.9
20260904233928 20 36 0.0 1.6 0.00 0.00 0.00 80 1010.9
20260904233759 20 36 1.6 1.6 0.00 0.00 0.00 80 1010.9
20260904233720 20 36 0.0 1.6 0.00 0.00 0.00 81 1010.9
20260904233523 20 36 0.0 0.0 0.00 0.00 0.00 81 1010.9
20260904233446 20 36 0.0 0.0 0.00 0.00 0.00 80 1010.9
20260904233350 20 36 0.0 0.0 0.00 0.00 0.00 80 1010.9
20260904233312 20 36 0.0 1.6 0.00 0.00 0.00 79 1010.9
20260904233129 20 36 0.0 1.6 0.00 0.00 0.00 79 1010.8
20260904233022 20 36 0.0 1.6 0.00 0.00 0.00 79 1010.8
20260904232852 20 36 0.0 1.6 0.00 0.00 0.00 79 1010.8
20260904232815 20 36 0.0 1.6 0.00 0.00 0.00 79 1010.8
20260904232623 20 36 0.0 3.2 0.00 0.00 0.00 79 1010.8
20260904232525 20 36 0.0 3.2 0.00 0.00 0.00 79 1010.9
20260904232429 20 36 0.0 3.2 0.00 0.00 0.00 78 1010.9
20260904232330 20 36 0.0 3.2 0.00 0.00 0.00 78 1010.9
20260904232132 20 36 0.0 3.2 0.00 0.00 0.00 79 1011.0
20260904232035 20 36 0.0 3.2 0.00 0.00 0.00 78 1011.0
20260904231950 20 36 0.0 3.2 0.00 0.00 0.00 78 1010.9
20260904231912 20 36 0.0 3.2 0.00 0.00 0.00 78 1010.9
20260904231751 20 36 0.0 3.2 0.00 0.00 0.00 78 1010.9
20260904231705 20 30 0.0 3.2 0.00 0.00 0.00 79 1010.9
20260904231540 20 355 0.0 0.0 0.00 0.00 0.00 78 1010.9
20260904231440 20 355 0.0 0.0 0.00 0.00 0.00 78 1010.9
20260904231223 20 355 0.0 0.0 0.00 0.00 0.00 77 1011.0
20260904231147 20 355 0.0 0.0 0.00 0.00 0.00 78 1011.0
20260904231031 20 355 0.0 1.6 0.00 0.00 0.00 77 1011.0
20260904230951 20 355 0.0 1.6 0.00 0.00 0.00 78 1011.0
20260904230730 21 355 0.0 1.6 0.00 0.00 0.00 76 1011.1
20260904230653 21 355 0.0 1.6 0.00 0.00 0.00 76 1011.1
20260904230557 21 355 0.0 1.6 0.00 0.00 0.00 76 1011.1
20260904230522 21 355 0.0 1.6 0.00 0.00 0.00 76 1011.1
20260904230352 21 355 0.0 3.2 0.00 0.00 0.00 75 1011.1
20260904230309 21 355 0.0 3.2 0.00 0.00 0.00 74 1011.1
20260904230047 21 355 0.0 4.8 0.00 0.00 0.00 73 1011.1
20260904225947 21 355 0.0 6.4 0.00 0.00 0.00 74 1011.0
20260904225832 21 355 0.0 6.4 0.00 0.00 0.00 73 1011.1
20260904225753 21 355 0.0 6.4 0.00 0.00 0.00 74 1011.1
20260904225625 21 355 1.6 6.4 0.00 0.00 0.00 74 1011.1
20260904225528 21 355 1.6 6.4 0.00 0.00 0.00 74 1011.1
20260904225339 21 355 1.6 6.4 0.00 0.00 0.00 74 1011.1
20260904225236 21 355 3.2 6.4 0.00 0.00 0.00 73 1011.2
20260904225159 21 355 3.2 6.4 0.00 0.00 0.00 73 1011.1
20260904225044 21 9 3.2 6.4 0.00 0.00 0.00 73 1011.1
20260904224944 21 9 3.2 6.4 0.00 0.00 0.00 73 1011.2
20260904224849 21 348 3.2 6.4 0.00 0.00 0.00 72 1011.1
20260904224810 21 61 1.6 4.8 0.00 0.00 0.00 73 1011.1
20260904224619 21 329 0.0 4.8 0.00 0.00 0.00 75 1011.2
20260904224533 21 329 1.6 4.8 0.00 0.00 0.00 73 1011.2
20260904224342 21 329 3.2 4.8 0.00 0.00 0.00 73 1011.1
20260904224236 21 329 1.6 4.8 0.00 0.00 0.00 74 1011.1
20260904224124 21 341 0.0 0.0 0.00 0.00 0.00 75 1011.1
20260904224045 21 341 0.0 0.0 0.00 0.00 0.00 73 1011.1
20260904223915 21 341 0.0 0.0 0.00 0.00 0.00 73 1011.0
20260904223831 21 341 0.0 0.0 0.00 0.00 0.00 73 1011.0
20260904223642 21 341 0.0 3.2 0.00 0.00 0.00 74 1011.0
20260904223605 21 341 0.0 3.2 0.00 0.00 0.00 74 1011.0
20260904223427 21 341 0.0 3.2 0.00 0.00 0.00 74 1011.0
20260904223351 21 341 0.0 3.2 0.00 0.00 0.00 73 1011.0
20260904223234 21 341 0.0 4.8 0.00 0.00 0.00 72 1011.0
20260904223136 21 341 0.0 8.0 0.00 0.00 0.00 73 1011.0
20260904222923 21 341 1.6 9.7 0.00 0.00 0.00 70 1010.9
20260904222824 21 341 1.6 9.7 0.00 0.00 0.00 71 1011.0
20260904222728 21 341 1.6 9.7 0.00 0.00 0.00 70 1010.9
20260904222649 21 341 1.6 9.7 0.00 0.00 0.00 70 1010.9
20260904222521 21 341 3.2 9.7 0.00 0.00 0.00 69 1010.9
20260904222435 21 341 3.2 9.7 0.00 0.00 0.00 70 1010.9
20260904222317 21 355 4.8 9.7 0.00 0.00 0.00 69 1010.9
20260904222237 21 316 4.8 9.7 0.00 0.00 0.00 70 1010.9
20260904222048 21 5 4.8 9.7 0.00 0.00 0.00 70 1011.0
20260904221926 21 336 4.8 14.5 0.00 0.00 0.00 69 1011.0
20260904221830 21 327 3.2 14.5 0.00 0.00 0.00 72 1011.0
20260904221753 21 304 3.2 14.5 0.00 0.00 0.00 70 1011.0
20260904221715 21 302 1.6 14.5 0.00 0.00 0.00 71 1011.0
20260904221620 21 342 3.2 14.5 0.00 0.00 0.00 71 1011.0
20260904221521 21 334 4.8 14.5 0.00 0.00 0.00 72 1011.0
20260904221325 21 331 6.4 14.5 0.00 0.00 0.00 70 1011.0
20260904221227 21 29 6.4 14.5 0.00 0.00 0.00 72 1011.0
20260904221123 22 339 4.8 12.9 0.00 0.00 0.00 71 1011.0
20260904221044 22 333 4.8 12.9 0.00 0.00 0.00 71 1011.0
20260904221012 22 11 4.8 12.9 0.00 0.00 0.00 72 1011.0
20260904220916 22 337 4.8 12.9 0.00 0.00 0.00 71 1011.0
20260904220837 22 318 6.4 12.9 0.00 0.00 0.00 71 1011.0
20260904220647 22 336 6.4 12.9 0.00 0.00 0.00 70 1011.0
20260904220604 22 338 6.4 12.9 0.00 0.00 0.00 71 1010.9
20260904220413 22 343 4.8 9.7 0.00 0.00 0.00 71 1010.9
20260904220315 22 338 4.8 9.7 0.00 0.00 0.00 70 1010.9
20260904220139 22 340 3.2 9.7 0.00 0.00 0.00 70 1010.9
20260904220039 22 333 4.8 9.7 0.00 0.00 0.00 69 1010.9
20260904215944 22 348 4.8 9.7 0.00 0.00 0.00 69 1010.8
20260904215906 22 30 4.8 9.7 0.00 0.00 0.00 70 1010.8
20260904215630 22 9 3.2 9.7 0.00 0.00 0.00 71 1010.8
20260904215544 22 48 4.8 9.7 0.00 0.00 0.00 70 1010.8
20260904215335 22 340 4.8 9.7 0.00 0.00 0.00 70 1010.8
20260904215230 22 342 4.8 9.7 0.00 0.00 0.00 70 1010.8
20260904215124 22 355 4.8 9.7 0.00 0.00 0.00 70 1010.8
20260904215045 22 18 4.8 9.7 0.00 0.00 0.00 70 1010.8
20260904215008 22 5 3.2 9.7 0.00 0.00 0.00 70 1010.8
20260904214912 22 348 1.6 9.7 0.00 0.00 0.00 70 1010.8
20260904214833 22 348 3.2 9.7 0.00 0.00 0.00 70 1010.8
20260904214641 22 340 6.4 9.7 0.00 0.00 0.00 70 1010.7
20260904214542 22 340 6.4 9.7 0.00 0.00 0.00 69 1010.7
20260904214446 22 44 4.8 9.7 0.00 0.00 0.00 69 1010.7
20260904214346 22 49 3.2 9.7 0.00 0.00 0.00 71 1010.7
20260904214217 22 321 1.6 8.0 0.00 0.00 0.00 71 1010.7
20260904214121 22 321 3.2 8.0 0.00 0.00 0.00 71 1010.7
20260904213951 22 349 3.2 8.0 0.00 0.00 0.00 70 1010.7
20260904213914 22 331 3.2 8.0 0.00 0.00 0.00 70 1010.7
20260904213744 22 351 4.8 8.0 0.00 0.00 0.00 70 1010.7
20260904213641 22 351 4.8 8.0 0.00 0.00 0.00 70 1010.7
20260904213529 22 355 3.2 8.0 0.00 0.00 0.00 70 1010.6
20260904213451 22 345 3.2 8.0 0.00 0.00 0.00 70 1010.7
20260904213231 22 346 3.2 8.0 0.00 0.00 0.00 69 1010.7
20260904213134 22 342 4.8 8.0 0.00 0.00 0.00 70 1010.7
20260904213049 22 336 3.2 8.0 0.00 0.00 0.00 70 1010.7
20260904213012 22 332 3.2 8.0 0.00 0.00 0.00 70 1010.7
20260904212846 22 329 1.6 4.8 0.00 0.00 0.00 70 1010.7
20260904212723 22 329 1.6 8.0 0.00 0.00 0.00 69 1010.7
20260904212628 22 327 1.6 8.0 0.00 0.00 0.00 69 1010.7
20260904212534 22 327 0.0 8.0 0.00 0.00 0.00 70 1010.7
20260904212457 22 327 1.6 8.0 0.00 0.00 0.00 70 1010.7
20260904212401 22 327 1.6 8.0 0.00 0.00 0.00 69 1010.7
20260904212322 22 327 3.2 8.0 0.00 0.00 0.00 70 1010.7
20260904212126 22 321 1.6 8.0 0.00 0.00 0.00 70 1010.7
20260904212029 22 322 1.6 8.0 0.00 0.00 0.00 70 1010.7
20260904211934 22 322 4.8 8.0 0.00 0.00 0.00 70 1010.7
20260904211833 22 312 3.2 8.0 0.00 0.00 0.00 70 1010.7
20260904211703 22 340 3.2 8.0 0.00 0.00 0.00 70 1010.7
20260904211618 22 346 4.8 8.0 0.00 0.00 0.00 69 1010.6
20260904211452 22 350 3.2 8.0 0.00 0.00 0.00 67 1010.6
20260904211415 22 355 3.2 8.0 0.00 0.00 0.00 67 1010.6
20260904211246 23 344 3.2 8.0 0.00 0.00 0.00 69 1010.7
20260904211202 23 333 1.6 8.0 0.00 0.00 0.00 69 1010.6
20260904211032 23 333 3.2 8.0 0.00 0.00 0.00 68 1010.6
20260904210934 23 338 3.2 8.0 0.00 0.00 0.00 69 1010.7
20260904210816 23 39 3.2 8.0 0.00 0.00 0.00 70 1010.6
20260904210737 23 337 3.2 9.7 0.00 0.00 0.00 68 1010.6
20260904210607 23 340 4.8 9.7 0.00 0.00 0.00 67 1010.6
20260904210501 23 319 4.8 14.5 0.00 0.00 0.00 68 1010.6
20260904210311 23 321 4.8 14.5 0.00 0.00 0.00 68 1010.7
20260904210232 23 17 6.4 14.5 0.00 0.00 0.00 68 1010.7
20260904210054 23 360 4.8 14.5 0.00 0.00 0.00 66 1010.6
20260904210020 23 44 4.8 14.5 0.00 0.00 0.00 69 1010.7
20260904205849 23 338 6.4 14.5 0.00 0.00 0.00 67 1010.7
20260904205729 23 329 6.4 14.5 0.00 0.00 0.00 66 1010.7
20260904205633 23 5 4.8 14.5 0.00 0.00 0.00 67 1010.7
20260904205556 23 10 3.2 8.0 0.00 0.00 0.00 68 1010.7
20260904205427 23 332 4.8 9.7 0.00 0.00 0.00 68 1010.8
20260904205322 23 329 4.8 9.7 0.00 0.00 0.00 67 1010.8
20260904205042 23 314 3.2 14.5 0.00 0.00 0.00 66 1010.8
20260904205007 23 9 3.2 14.5 0.00 0.00 0.00 68 1010.8
20260904204818 23 308 3.2 14.5 0.00 0.00 0.00 66 1010.7
20260904204738 23 333 4.8 14.5 0.00 0.00 0.00 65 1010.7
20260904204608 23 355 6.4 14.5 0.00 0.00 0.00 67 1010.7
20260904204526 23 331 6.4 14.5 0.00 0.00 0.00 66 1010.7
20260904204403 23 360 8.0 14.5 0.00 0.00 0.00 66 1010.8
20260904204324 23 346 8.0 14.5 0.00 0.00 0.00 66 1010.8
20260904204127 23 333 4.8 14.5 0.00 0.00 0.00 65 1010.7
20260904204050 23 315 4.8 14.5 0.00 0.00 0.00 65 1010.7
20260904203954 23 319 8.0 16.1 0.00 0.00 0.00 64 1010.7
20260904203915 23 329 8.0 16.1 0.00 0.00 0.00 64 1010.7
20260904203746 23 329 4.8 16.1 0.00 0.00 0.00 65 1010.8
20260904203640 23 293 8.0 16.1 0.00 0.00 0.00 64 1010.7
20260904203526 23 343 9.7 16.1 0.00 0.00 0.00 64 1010.7
20260904203432 23 337 8.0 16.1 0.00 0.00 0.00 64 1010.8
20260904203354 23 336 6.4 16.1 0.00 0.00 0.00 64 1010.8
20260904203259 23 342 8.0 16.1 0.00 0.00 0.00 63 1010.7
20260904203139 24 310 8.0 16.1 0.00 0.00 0.00 63 1010.8
20260904203042 24 355 4.8 16.1 0.00 0.00 0.00 64 1010.8
20260904202942 24 313 6.4 16.1 0.00 0.00 0.00 63 1010.8
20260904202725 24 327 8.0 16.1 0.00 0.00 0.00 64 1010.7
20260904202627 24 344 4.8 16.1 0.00 0.00 0.00 63 1010.7
20260904202532 24 331 4.8 16.1 0.00 0.00 0.00 65 1010.7
20260904202435 24 321 4.8 16.1 0.00 0.00 0.00 65 1010.7
20260904202307 24 340 8.0 16.1 0.00 0.00 0.00 65 1010.6
20260904202222 24 348 8.0 16.1 0.00 0.00 0.00 63 1010.6
20260904202032 24 337 6.4 17.7 0.00 0.00 0.00 64 1010.6
20260904201932 24 42 6.4 17.7 0.00 0.00 0.00 64 1010.6
20260904201737 24 303 9.7 17.7 0.00 0.00 0.00 62 1010.6
20260904201639 24 319 9.7 17.7 0.00 0.00 0.00 63 1010.5
20260904201535 24 344 9.7 17.7 0.00 0.00 0.00 64 1010.5
20260904201458 25 5 9.7 17.7 0.00 0.00 0.00 63 1010.5
20260904201324 25 338 11.3 17.7 0.00 0.00 0.00 63 1010.5
20260904201240 25 328 12.9 17.7 0.00 0.00 0.00 62 1010.6
20260904201110 25 349 9.7 19.3 0.00 0.00 0.00 64 1010.5
20260904201032 25 323 8.0 19.3 0.00 0.00 0.00 65 1010.5
20260904200837 25 343 8.0 19.3 0.00 0.00 0.00 63 1010.6
20260904200759 25 323 8.0 19.3 0.00 0.00 0.00 64 1010.5
20260904200623 24 340 11.3 19.3 0.00 0.00 0.00 64 1010.6
20260904200539 24 338 12.9 19.3 0.00 0.00 0.00 64 1010.6
20260904200349 24 328 8.0 19.3 0.00 0.00 0.00 66 1010.7
20260904200314 24 351 6.4 19.3 0.00 0.00 0.00 67 1010.6
20260904200146 24 339 6.4 19.3 0.00 0.00 0.00 66 1010.7
20260904200039 24 327 4.8 19.3 0.00 0.00 0.00 64 1010.7
20260904195909 24 333 3.2 19.3 0.00 0.00 0.00 67 1010.7
20260904195832 24 315 4.8 19.3 0.00 0.00 0.00 67 1010.7
20260904195635 24 327 9.7 19.3 0.00 0.00 0.00 65 1010.7
20260904195558 24 300 8.0 19.3 0.00 0.00 0.00 63 1010.7
20260904195443 24 311 9.7 19.3 0.00 0.00 0.00 62 1010.7
20260904195404 24 304 9.7 19.3 0.00 0.00 0.00 63 1010.7
20260904195306 24 317 8.0 16.1 0.00 0.00 0.00 63 1010.7
20260904195208 24 321 8.0 16.1 0.00 0.00 0.00 67 1010.8
20260904195133 24 347 8.0 16.1 0.00 0.00 0.00 67 1010.8
20260904195005 24 324 6.4 14.5 0.00 0.00 0.00 67 1010.8
20260904194921 24 12 6.4 19.3 0.00 0.00 0.00 65 1010.8
20260904194659 24 355 9.7 19.3 0.00 0.00 0.00 66 1010.8
20260904194622 24 333 8.0 19.3 0.00 0.00 0.00 66 1010.8
20260904194538 24 327 6.4 19.3 0.00 0.00 0.00 66 1010.8
20260904194409 24 324 4.8 19.3 0.00 0.00 0.00 64 1010.8
20260904194331 24 322 4.8 19.3 0.00 0.00 0.00 65 1010.8
20260904194201 24 267 11.3 19.3 0.00 0.00 0.00 64 1010.8
20260904194116 24 333 12.9 19.3 0.00 0.00 0.00 64 1010.8
20260904193927 24 342 11.3 17.7 0.00 0.00 0.00 66 1010.8
20260904193844 24 333 8.0 14.5 0.00 0.00 0.00 68 1010.9
20260904193657 23 344 4.8 9.7 0.00 0.00 0.00 68 1010.8
20260904193619 23 326 4.8 9.7 0.00 0.00 0.00 67 1010.8
20260904193423 23 360 4.8 9.7 0.00 0.00 0.00 68 1010.7
20260904193346 23 11 4.8 9.7 0.00 0.00 0.00 69 1010.7
20260904193231 23 350 6.4 8.0 0.00 0.00 0.00 68 1010.7
20260904193132 23 334 6.4 14.5 0.00 0.00 0.00 67 1010.8
20260904192935 23 355 3.2 14.5 0.00 0.00 0.00 68 1010.8
20260904192859 23 355 3.2 14.5 0.00 0.00 0.00 68 1010.7
20260904192742 23 355 6.4 14.5 0.00 0.00 0.00 67 1010.8
20260904192645 23 355 6.4 14.5 0.00 0.00 0.00 68 1010.8
20260904192516 23 339 6.4 14.5 0.00 0.00 0.00 68 1010.8
20260904192432 23 325 8.0 14.5 0.00 0.00 0.00 67 1010.8
20260904192242 23 320 8.0 12.9 0.00 0.00 0.00 66 1010.8
20260904192157 23 13 6.4 12.9 0.00 0.00 0.00 66 1010.8
20260904192027 23 332 3.2 8.0 0.00 0.00 0.00 67 1010.8
20260904191928 23 334 3.2 8.0 0.00 0.00 0.00 66 1010.8
20260904191733 23 327 4.8 8.0 0.00 0.00 0.00 64 1010.8
20260904191634 23 311 4.8 8.0 0.00 0.00 0.00 65 1010.8
20260904191530 23 342 6.4 8.0 0.00 0.00 0.00 66 1010.8
20260904191457 23 320 4.8 8.0 0.00 0.00 0.00 67 1010.9
20260904191343 23 326 4.8 8.0 0.00 0.00 0.00 65 1010.9
20260904191315 23 348 3.2 8.0 0.00 0.00 0.00 67 1010.8
20260904191146 23 337 4.8 8.0 0.00 0.00 0.00 67 1010.9
20260904191102 23 329 4.8 8.0 0.00 0.00 0.00 65 1010.9
20260904190933 23 335 1.6 8.0 0.00 0.00 0.00 66 1010.9
20260904190832 23 309 1.6 8.0 0.00 0.00 0.00 65 1010.9
20260904190635 23 280 3.2 12.9 0.00 0.00 0.00 67 1010.8
20260904190558 23 328 1.6 12.9 0.00 0.00 0.00 67 1010.8
20260904190504 23 317 1.6 12.9 0.00 0.00 0.00 66 1010.8
20260904190345 23 317 3.2 12.9 0.00 0.00 0.00 65 1010.9
20260904190218 23 325 6.4 12.9 0.00 0.00 0.00 65 1010.9
20260904190120 23 321 6.4 12.9 0.00 0.00 0.00 64 1010.9
20260904190002 23 337 6.4 12.9 0.00 0.00 0.00 63 1010.8
20260904185843 23 331 6.4 16.1 0.00 0.00 0.00 63 1010.9
20260904185757 23 332 4.8 16.1 0.00 0.00 0.00 67 1010.8
20260904185720 23 333 4.8 16.1 0.00 0.00 0.00 66 1010.8
20260904185524 23 336 6.4 16.1 0.00 0.00 0.00 63 1010.8
20260904185427 23 327 6.4 16.1 0.00 0.00 0.00 63 1010.9
20260904185331 23 335 6.4 16.1 0.00 0.00 0.00 65 1010.9
20260904185238 23 345 6.4 16.1 0.00 0.00 0.00 64 1011.0
20260904185200 23 344 9.7 16.1 0.00 0.00 0.00 62 1011.0
20260904185105 23 331 9.7 16.1 0.00 0.00 0.00 65 1011.0
20260904185027 23 340 9.7 16.1 0.00 0.00 0.00 64 1011.0
20260904184830 23 13 6.4 12.9 0.00 0.00 0.00 66 1011.1
20260904184733 23 320 8.0 12.9 0.00 0.00 0.00 64 1011.1
20260904184637 23 337 6.4 12.9 0.00 0.00 0.00 63 1011.1
20260904184558 23 317 6.4 12.9 0.00 0.00 0.00 65 1011.1
20260904184522 23 330 4.8 9.7 0.00 0.00 0.00 63 1011.1
20260904184435 23 319 4.8 9.7 0.00 0.00 0.00 65 1011.1
20260904184305 23 307 4.8 9.7 0.00 0.00 0.00 67 1011.0
20260904184231 23 329 3.2 9.7 0.00 0.00 0.00 66 1011.0
20260904184034 23 296 1.6 9.7 0.00 0.00 0.00 66 1011.0
20260904183938 23 296 3.2 9.7 0.00 0.00 0.00 65 1011.0
20260904183841 23 311 4.8 9.7 0.00 0.00 0.00 64 1010.9
20260904183805 24 330 6.4 9.7 0.00 0.00 0.00 62 1011.0
20260904183706 24 327 4.8 9.7 0.00 0.00 0.00 62 1010.9
20260904183611 24 306 3.2 9.7 0.00 0.00 0.00 64 1010.9
20260904183532 24 306 4.8 9.7 0.00 0.00 0.00 64 1010.9
20260904183402 24 320 6.4 14.5 0.00 0.00 0.00 65 1011.0
20260904183236 24 340 3.2 14.5 0.00 0.00 0.00 67 1010.9
20260904183125 24 306 4.8 14.5 0.00 0.00 0.00 66 1010.9
20260904183046 24 330 6.4 14.5 0.00 0.00 0.00 65 1010.9
20260904182834 24 351 8.0 14.5 0.00 0.00 0.00 65 1011.0
20260904182728 24 337 6.4 14.5 0.00 0.00 0.00 64 1011.0
20260904182630 24 13 8.0 14.5 0.00 0.00 0.00 63 1010.9
20260904182554 24 348 8.0 14.5 0.00 0.00 0.00 63 1010.9
20260904182453 24 355 6.4 12.9 0.00 0.00 0.00 63 1010.9
20260904182325 24 325 6.4 14.5 0.00 0.00 0.00 63 1010.9
20260904182217 24 342 4.8 16.1 0.00 0.00 0.00 64 1010.9
20260904182033 24 360 4.8 16.1 0.00 0.00 0.00 63 1010.9
20260904181947 24 36 4.8 16.1 0.00 0.00 0.00 62 1010.9
20260904181735 24 13 4.8 16.1 0.00 0.00 0.00 61 1010.9
20260904181628 24 344 8.0 16.1 0.00 0.00 0.00 60 1011.0
20260904181549 24 302 8.0 16.1 0.00 0.00 0.00 60 1011.0
20260904181504 25 310 8.0 16.1 0.00 0.00 0.00 63 1011.0
20260904181425 25 331 8.0 16.1 0.00 0.00 0.00 65 1011.0
20260904181257 24 334 8.0 12.9 0.00 0.00 0.00 64 1011.0
20260904181212 24 343 8.0 12.9 0.00 0.00 0.00 64 1010.9
20260904181020 24 360 4.8 14.5 0.00 0.00 0.00 69 1010.8
20260904180941 24 348 3.2 14.5 0.00 0.00 0.00 68 1010.9
20260904180755 23 316 3.2 14.5 0.00 0.00 0.00 68 1010.9
20260904180649 23 331 4.8 14.5 0.00 0.00 0.00 64 1010.9
20260904180519 23 360 4.8 16.1 0.00 0.00 0.00 65 1010.9
20260904180421 23 5 4.8 16.1 0.00 0.00 0.00 65 1010.9
20260904180336 23 333 6.4 16.1 0.00 0.00 0.00 64 1010.9
20260904180207 24 293 9.7 19.3 0.00 0.00 0.00 63 1011.0
20260904180129 24 319 9.7 19.3 0.00 0.00 0.00 63 1011.0
20260904175933 24 355 9.7 19.3 0.00 0.00 0.00 63 1010.9
20260904175855 24 329 11.3 19.3 0.00 0.00 0.00 61 1010.9
20260904175738 24 309 9.7 19.3 0.00 0.00 0.00 62 1010.9
20260904175700 25 355 9.7 19.3 0.00 0.00 0.00 62 1010.9
20260904175627 25 321 11.3 19.3 0.00 0.00 0.00 62 1010.9
20260904175511 25 346 11.3 19.3 0.00 0.00 0.00 65 1011.0
20260904175433 25 355 11.3 19.3 0.00 0.00 0.00 65 1011.0
20260904175306 25 340 8.0 17.7 0.00 0.00 0.00 65 1011.0
20260904175219 25 348 8.0 17.7 0.00 0.00 0.00 62 1010.9
20260904175031 25 319 6.4 12.9 0.00 0.00 0.00 64 1010.9
20260904174946 25 360 8.0 12.9 0.00 0.00 0.00 66 1010.9
20260904174817 25 339 6.4 12.9 0.00 0.00 0.00 63 1011.0
20260904174738 25 319 4.8 12.9 0.00 0.00 0.00 63 1011.0
20260904174602 25 305 6.4 8.0 0.00 0.00 0.00 66 1011.1
20260904174524 25 355 6.4 8.0 0.00 0.00 0.00 67 1011.1
20260904174340 24 360 6.4 8.0 0.00 0.00 0.00 67 1011.1
20260904174253 24 340 4.8 8.0 0.00 0.00 0.00 68 1011.1
20260904174154 24 5 4.8 8.0 0.00 0.00 0.00 66 1011.2
20260904174116 24 348 4.8 8.0 0.00 0.00 0.00 67 1011.2
20260904173940 24 337 3.2 8.0 0.00 0.00 0.00 66 1011.3
20260904173841 24 340 1.6 8.0 0.00 0.00 0.00 65 1011.3
20260904173745 24 351 1.6 9.7 0.00 0.00 0.00 65 1011.3
20260904173706 24 351 3.2 9.7 0.00 0.00 0.00 65 1011.3
20260904173516 24 348 3.2 9.7 0.00 0.00 0.00 65 1011.3
20260904173432 24 334 4.8 9.7 0.00 0.00 0.00 63 1011.3
20260904173226 24 15 4.8 9.7 0.00 0.00 0.00 64 1011.3
20260904173140 24 5 4.8 9.7 0.00 0.00 0.00 63 1011.3
20260904173011 24 318 6.4 9.7 0.00 0.00 0.00 66 1011.3
20260904172932 24 318 6.4 9.7 0.00 0.00 0.00 65 1011.3
20260904172738 24 5 4.8 9.7 0.00 0.00 0.00 64 1011.2
20260904172700 24 17 3.2 9.7 0.00 0.00 0.00 64 1011.2
20260904172605 24 19 1.6 11.3 0.00 0.00 0.00 65 1011.1
20260904172526 24 320 1.6 8.0 0.00 0.00 0.00 65 1011.1
20260904172331 24 320 4.8 9.7 0.00 0.00 0.00 65 1011.1
20260904172234 24 324 4.8 9.7 0.00 0.00 0.00 65 1011.1
20260904172123 24 312 4.8 9.7 0.00 0.00 0.00 63 1011.1
20260904172045 24 311 4.8 12.9 0.00 0.00 0.00 63 1011.1
20260904172008 24 331 4.8 12.9 0.00 0.00 0.00 67 1011.1
20260904171912 24 325 3.2 12.9 0.00 0.00 0.00 67 1011.1
20260904171834 24 331 4.8 12.9 0.00 0.00 0.00 67 1011.1
20260904171704 23 319 6.4 12.9 0.00 0.00 0.00 67 1011.1
20260904171619 23 318 8.0 12.9 0.00 0.00 0.00 66 1011.1
20260904171430 23 330 6.4 12.9 0.00 0.00 0.00 67 1011.1
20260904171325 23 322 6.4 12.9 0.00 0.00 0.00 66 1011.1
20260904171249 23 327 6.4 12.9 0.00 0.00 0.00 64 1011.1
20260904171216 23 319 6.4 14.5 0.00 0.00 0.00 66 1011.1
20260904171130 23 331 6.4 14.5 0.00 0.00 0.00 66 1011.1
20260904170942 23 15 8.0 14.5 0.00 0.00 0.00 67 1011.1
20260904170856 23 336 6.4 14.5 0.00 0.00 0.00 66 1011.1
20260904170706 23 25 4.8 14.5 0.00 0.00 0.00 66 1011.1
20260904170628 23 30 6.4 14.5 0.00 0.00 0.00 66 1011.1
20260904170432 23 338 8.0 14.5 0.00 0.00 0.00 66 1011.2
20260904170355 23 335 8.0 14.5 0.00 0.00 0.00 67 1011.2
20260904170258 23 336 6.4 9.7 0.00 0.00 0.00 67 1011.2
20260904170222 23 355 3.2 12.9 0.00 0.00 0.00 67 1011.2
20260904170142 23 355 3.2 14.5 0.00 0.00 0.00 68 1011.2
20260904170017 23 355 6.4 14.5 0.00 0.00 0.00 67 1011.2
20260904165933 23 346 6.4 14.5 0.00 0.00 0.00 68 1011.2
20260904165743 23 355 4.8 16.1 0.00 0.00 0.00 67 1011.2
20260904165641 23 329 6.4 16.1 0.00 0.00 0.00 66 1011.2
20260904165526 23 343 8.0 16.1 0.00 0.00 0.00 68 1011.3
20260904165449 23 342 8.0 16.1 0.00 0.00 0.00 65 1011.3
20260904165422 23 355 8.0 16.1 0.00 0.00 0.00 67 1011.3
20260904165306 23 328 6.4 16.1 0.00 0.00 0.00 65 1011.2
20260904165227 23 15 6.4 16.1 0.00 0.00 0.00 66 1011.2
20260904165043 23 28 9.7 16.1 0.00 0.00 0.00 66 1011.3
20260904164937 23 360 8.0 16.1 0.00 0.00 0.00 65 1011.3
20260904164822 23 348 6.4 17.7 0.00 0.00 0.00 66 1011.3
20260904164743 23 342 8.0 17.7 0.00 0.00 0.00 66 1011.3
20260904164705 23 335 8.0 17.7 0.00 0.00 0.00 66 1011.3
20260904164611 23 327 8.0 17.7 0.00 0.00 0.00 66 1011.4
20260904164532 23 338 8.0 17.7 0.00 0.00 0.00 67 1011.4
20260904164404 23 309 9.7 17.7 0.00 0.00 0.00 66 1011.4
20260904164318 23 321 11.3 17.7 0.00 0.00 0.00 66 1011.4
20260904164130 23 5 11.3 17.7 0.00 0.00 0.00 65 1011.4
20260904164049 23 360 12.9 17.7 0.00 0.00 0.00 65 1011.4
20260904163840 23 338 8.0 16.1 0.00 0.00 0.00 67 1011.4
20260904163723 23 268 6.4 14.5 0.00 0.00 0.00 65 1011.4
20260904163645 23 355 6.4 14.5 0.00 0.00 0.00 65 1011.4
20260904163608 23 5 4.8 16.1 0.00 0.00 0.00 65 1011.4
20260904163512 23 340 4.8 16.1 0.00 0.00 0.00 64 1011.4
20260904163434 23 22 4.8 16.1 0.00 0.00 0.00 63 1011.4
20260904163305 24 355 6.4 16.1 0.00 0.00 0.00 64 1011.4
20260904163220 24 20 6.4 16.1 0.00 0.00 0.00 63 1011.4
20260904163050 24 311 8.0 16.1 0.00 0.00 0.00 63 1011.4
20260904162950 24 333 8.0 16.1 0.00 0.00 0.00 60 1011.4
20260904162837 25 302 9.7 16.1 0.00 0.00 0.00 62 1011.5
20260904162740 25 327 9.7 16.1 0.00 0.00 0.00 64 1011.4
20260904162701 25 355 6.4 14.5 0.00 0.00 0.00 64 1011.4
20260904162607 25 337 4.8 9.7 0.00 0.00 0.00 65 1011.4
20260904162527 25 355 4.8 9.7 0.00 0.00 0.00 63 1011.4
20260904162359 25 336 6.4 17.7 0.00 0.00 0.00 65 1011.3
20260904162314 25 334 6.4 17.7 0.00 0.00 0.00 63 1011.3
20260904162145 25 29 4.8 17.7 0.00 0.00 0.00 63 1011.2
20260904162107 25 75 3.2 17.7 0.00 0.00 0.00 64 1011.2
20260904161930 25 355 3.2 17.7 0.00 0.00 0.00 61 1011.3
20260904161852 25 11 4.8 17.7 0.00 0.00 0.00 61 1011.4
20260904161701 25 324 9.7 17.7 0.00 0.00 0.00 61 1011.4
20260904161627 25 342 8.0 17.7 0.00 0.00 0.00 65 1011.4
20260904161431 25 327 6.4 17.7 0.00 0.00 0.00 67 1011.4
20260904161354 25 340 6.4 17.7 0.00 0.00 0.00 68 1011.4
20260904161258 25 44 6.4 20.9 0.00 0.00 0.00 64 1011.4
20260904161139 25 60 6.4 20.9 0.00 0.00 0.00 63 1011.5
20260904161043 25 22 6.4 20.9 0.00 0.00 0.00 64 1011.5
20260904161006 25 24 8.0 20.9 0.00 0.00 0.00 64 1011.5
20260904160928 25 9 9.7 20.9 0.00 0.00 0.00 64 1011.5
20260904160758 25 13 9.7 20.9 0.00 0.00 0.00 64 1011.5
20260904160720 25 35 9.7 20.9 0.00 0.00 0.00 64 1011.6
20260904160536 25 11 11.3 20.9 0.00 0.00 0.00 65 1011.6
20260904160451 25 5 8.0 20.9 0.00 0.00 0.00 62 1011.7
20260904160320 24 11 6.4 14.5 0.00 0.00 0.00 63 1011.8
20260904160240 24 355 6.4 14.5 0.00 0.00 0.00 65 1011.8
20260904160042 24 339 8.0 14.5 0.00 0.00 0.00 68 1011.8
20260904160005 24 342 8.0 14.5 0.00 0.00 0.00 68 1011.8
20260904155909 24 342 6.4 14.5 0.00 0.00 0.00 68 1011.9
20260904155831 24 347 6.4 14.5 0.00 0.00 0.00 67 1011.9
20260904155616 23 344 6.4 12.9 0.00 0.00 0.00 68 1011.9
20260904155525 23 344 6.4 16.1 0.00 0.00 0.00 67 1011.9
20260904155428 23 332 8.0 16.1 0.00 0.00 0.00 66 1011.9
20260904155342 23 355 4.8 16.1 0.00 0.00 0.00 65 1011.9
20260904155133 23 31 6.4 16.1 0.00 0.00 0.00 68 1011.8
20260904155048 23 15 4.8 16.1 0.00 0.00 0.00 67 1011.8
20260904154920 23 329 6.4 17.7 0.00 0.00 0.00 67 1011.9
20260904154842 23 309 8.0 17.7 0.00 0.00 0.00 68 1011.9
20260904154623 23 341 8.0 17.7 0.00 0.00 0.00 67 1011.9
20260904154526 23 360 8.0 17.7 0.00 0.00 0.00 67 1011.9
20260904154435 23 338 8.0 17.7 0.00 0.00 0.00 66 1011.9
20260904154357 23 348 9.7 17.7 0.00 0.00 0.00 65 1011.9
20260904154259 23 348 9.7 17.7 0.00 0.00 0.00 66 1012.0
20260904154124 23 343 9.7 16.1 0.00 0.00 0.00 66 1012.0
20260904154040 24 355 8.0 16.1 0.00 0.00 0.00 66 1012.0
20260904153911 24 345 6.4 16.1 0.00 0.00 0.00 64 1012.0
20260904153834 24 337 6.4 16.1 0.00 0.00 0.00 64 1012.0
20260904153707 24 341 8.0 16.1 0.00 0.00 0.00 63 1012.0
20260904153622 24 280 8.0 16.1 0.00 0.00 0.00 63 1012.0
20260904153401 24 323 9.7 16.1 0.00 0.00 0.00 64 1012.0
20260904153322 24 345 9.7 16.1 0.00 0.00 0.00 64 1012.0
20260904153129 24 355 8.0 20.9 0.00 0.00 0.00 63 1012.1
20260904153053 24 345 8.0 20.9 0.00 0.00 0.00 63 1012.1